SWR41G KLAX-LSZH

Flight info

Callsign SWR41G
Flight time 10h 49m
Altitude 33000
Route OSHNN1 BEALE Q842 WINEN DCT MLF DCT FBR DCT DIK Q945 SEGAP DCT 55N096W 60N094W/N0484F350 65N087W 68N070W/M084F350 DCT BOPUT DCT 70N050W 70N040W 70N030W/M084F370 69N020W 67N010W DCT ISVIG/N0482F370 DCT ATNAK DCT GREFI DCT ASBON DCT TUSUK DCT LAMGO/N0485F270 T721 RILAX
Aircraft B77W/H-SDE1E2E3FGHJ2J3J4J5M1RWXY/LB1D1

Departure

Time 2026-04-26 04:14
Airport Los Angeles International Airport (KLAX)

Arrival

Time 2026-04-26 15:04
Airport Zürich Airport (LSZH)
Time Latitude Longitude Altitude Speed Heading
2026-04-26 03:24 33.94177 -118.41103 138 ft 0 kts 83°
2026-04-26 03:52 33.94177 -118.41104 138 ft 1 kts 83°
2026-04-26 03:53 33.94175 -118.41122 138 ft 2 kts 83°
2026-04-26 03:53 33.94173 -118.41139 137 ft 2 kts 83°
2026-04-26 03:53 33.94172 -118.41157 136 ft 2 kts 85°
2026-04-26 03:53 33.94173 -118.41175 136 ft 2 kts 108°
2026-04-26 03:54 33.94179 -118.41191 135 ft 2 kts 126°
2026-04-26 03:54 33.94189 -118.41205 135 ft 2 kts 143°
2026-04-26 03:54 33.94202 -118.41213 136 ft 2 kts 161°
2026-04-26 03:54 33.94212 -118.41216 136 ft 0 kts 173°
2026-04-26 03:55 33.94215 -118.41217 136 ft 0 kts 173°
2026-04-26 03:57 33.94214 -118.41217 136 ft 1 kts 173°
2026-04-26 03:57 33.94183 -118.41212 135 ft 7 kts 172°
2026-04-26 03:58 33.94121 -118.41202 135 ft 8 kts 173°
2026-04-26 03:58 33.94059 -118.41193 136 ft 9 kts 173°
2026-04-26 03:58 33.93984 -118.41182 135 ft 11 kts 173°
2026-04-26 03:58 33.93912 -118.41172 137 ft 8 kts 173°
2026-04-26 03:59 33.93859 -118.41164 139 ft 7 kts 173°
2026-04-26 03:59 33.93846 -118.41162 139 ft 0 kts 173°
2026-04-26 03:59 33.93836 -118.41161 140 ft 4 kts 172°
2026-04-26 03:59 33.93785 -118.41132 140 ft 9 kts 130°
2026-04-26 04:00 33.93772 -118.41061 141 ft 5 kts 87°
2026-04-26 04:00 33.93773 -118.41049 141 ft 0 kts 84°
2026-04-26 04:01 33.93773 -118.41039 141 ft 4 kts 84°
2026-04-26 04:01 33.93780 -118.40961 141 ft 12 kts 84°
2026-04-26 04:01 33.93791 -118.40851 142 ft 14 kts 83°
2026-04-26 04:02 33.93803 -118.40733 141 ft 14 kts 83°
2026-04-26 04:02 33.93816 -118.40616 140 ft 13 kts 83°
2026-04-26 04:02 33.93828 -118.40501 137 ft 14 kts 83°
2026-04-26 04:02 33.93841 -118.40372 134 ft 16 kts 83°
2026-04-26 04:03 33.93855 -118.40223 131 ft 19 kts 84°
2026-04-26 04:03 33.93872 -118.40059 128 ft 19 kts 83°
2026-04-26 04:03 33.93888 -118.39906 127 ft 17 kts 84°
2026-04-26 04:03 33.93903 -118.39757 126 ft 17 kts 83°
2026-04-26 04:04 33.93919 -118.39603 121 ft 18 kts 83°
2026-04-26 04:04 33.93935 -118.39444 119 ft 19 kts 83°
2026-04-26 04:04 33.93951 -118.39287 117 ft 18 kts 83°
2026-04-26 04:04 33.93967 -118.39131 116 ft 18 kts 83°
2026-04-26 04:05 33.93981 -118.38989 115 ft 14 kts 83°
2026-04-26 04:05 33.93992 -118.38879 114 ft 12 kts 83°
2026-04-26 04:05 33.94003 -118.38778 113 ft 12 kts 83°
2026-04-26 04:05 33.94015 -118.38666 113 ft 13 kts 83°
2026-04-26 04:06 33.94027 -118.38554 112 ft 13 kts 83°
2026-04-26 04:06 33.94038 -118.38436 111 ft 14 kts 83°
2026-04-26 04:06 33.94047 -118.38337 111 ft 7 kts 83°
2026-04-26 04:06 33.94051 -118.38299 110 ft 1 kts 83°
2026-04-26 04:07 33.94052 -118.38289 110 ft 1 kts 82°
2026-04-26 04:07 33.94053 -118.38281 110 ft 0 kts 82°
2026-04-26 04:07 33.94055 -118.38263 110 ft 5 kts 82°
2026-04-26 04:07 33.94064 -118.38183 110 ft 10 kts 82°
2026-04-26 04:08 33.94070 -118.38134 109 ft 4 kts 82°
2026-04-26 04:08 33.94072 -118.38113 109 ft 1 kts 82°
2026-04-26 04:08 33.94073 -118.38104 109 ft 0 kts 84°
2026-04-26 04:10 33.94073 -118.38103 109 ft 0 kts 84°
2026-04-26 04:10 33.94073 -118.38100 109 ft 2 kts 84°
2026-04-26 04:10 33.94076 -118.38067 109 ft 4 kts 88°
2026-04-26 04:10 33.94074 -118.38039 109 ft 0 kts 104°
2026-04-26 04:11 33.94065 -118.38022 109 ft 7 kts 134°
2026-04-26 04:12 33.94000 -118.38005 108 ft 8 kts 220°
2026-04-26 04:12 33.93983 -118.38050 108 ft 0 kts 261°
2026-04-26 04:13 33.93974 -118.38120 109 ft 32 kts 263°
2026-04-26 04:13 33.93916 -118.38692 113 ft 104 kts 263°
2026-04-26 04:14 33.93798 -118.39835 124 ft 167 kts 262°
2026-04-26 04:14 33.93641 -118.41397 418 ft 199 kts 263°
2026-04-26 04:14 33.93473 -118.43033 1303 ft 200 kts 263°
2026-04-26 04:14 33.93301 -118.44669 2012 ft 202 kts 260°
2026-04-26 04:15 33.92846 -118.46299 2419 ft 216 kts 240°
2026-04-26 04:15 33.91914 -118.47814 2802 ft 233 kts 232°
2026-04-26 04:15 33.90890 -118.49342 3428 ft 238 kts 233°
2026-04-26 04:15 33.89804 -118.50897 4019 ft 249 kts 231°
2026-04-26 04:16 33.88671 -118.52495 4680 ft 254 kts 232°
2026-04-26 04:16 33.87495 -118.54153 5229 ft 260 kts 229°
2026-04-26 04:16 33.86073 -118.55393 6126 ft 260 kts 206°
2026-04-26 04:16 33.84302 -118.55846 6843 ft 269 kts 183°
2026-04-26 04:17 33.82409 -118.55531 7526 ft 277 kts 173°
2026-04-26 04:17 33.80519 -118.55018 8249 ft 280 kts 172°
2026-04-26 04:17 33.78627 -118.54494 8933 ft 283 kts 172°
2026-04-26 04:17 33.76698 -118.53966 9649 ft 285 kts 172°
2026-04-26 04:18 33.74764 -118.53427 10250 ft 292 kts 169°
2026-04-26 04:18 33.72760 -118.52579 10545 ft 313 kts 160°
2026-04-26 04:18 33.70798 -118.51292 10856 ft 334 kts 150°
2026-04-26 04:18 33.68922 -118.49500 11183 ft 355 kts 140°
2026-04-26 04:19 33.67270 -118.47211 11517 ft 376 kts 128°
2026-04-26 04:19 33.65932 -118.44379 11881 ft 396 kts 116°
2026-04-26 04:19 33.65054 -118.41176 12265 ft 414 kts 105°
2026-04-26 04:19 33.64445 -118.37746 12860 ft 423 kts 103°
2026-04-26 04:20 33.64137 -118.34253 13585 ft 429 kts 92°
2026-04-26 04:20 33.64190 -118.30672 14358 ft 433 kts 90°
2026-04-26 04:20 33.64302 -118.27029 15039 ft 439 kts 86°
2026-04-26 04:20 33.64818 -118.23412 15658 ft 446 kts 75°
2026-04-26 04:21 33.65854 -118.19913 16363 ft 449 kts 65°
2026-04-26 04:21 33.67383 -118.16603 16962 ft 454 kts 54°
2026-04-26 04:21 33.69352 -118.13649 17535 ft 458 kts 44°
2026-04-26 04:21 33.71735 -118.11108 18144 ft 459 kts 33°
2026-04-26 04:22 33.74338 -118.08831 18852 ft 461 kts 32°
2026-04-26 04:22 33.76937 -118.06580 19429 ft 467 kts 32°
2026-04-26 04:22 33.79563 -118.04282 19994 ft 473 kts 33°
2026-04-26 04:22 33.82261 -118.01902 20611 ft 478 kts 33°
2026-04-26 04:23 33.84940 -117.99525 21187 ft 483 kts 33°
2026-04-26 04:23 33.87663 -117.97096 21717 ft 489 kts 33°
2026-04-26 04:23 33.90387 -117.94658 22212 ft 495 kts 33°
2026-04-26 04:23 33.93165 -117.92149 22765 ft 500 kts 34°
2026-04-26 04:24 33.95950 -117.89611 23282 ft 505 kts 34°
2026-04-26 04:24 33.98762 -117.87043 23765 ft 510 kts 34°
2026-04-26 04:24 34.01562 -117.84483 24316 ft 513 kts 34°
2026-04-26 04:24 34.04438 -117.81850 24857 ft 516 kts 34°
2026-04-26 04:25 34.07293 -117.79202 25321 ft 520 kts 37°
2026-04-26 04:25 34.09867 -117.76199 26211 ft 514 kts 46°
2026-04-26 04:25 34.12131 -117.72976 26782 ft 500 kts 49°
2026-04-26 04:25 34.14330 -117.69733 26914 ft 491 kts 49°
2026-04-26 04:26 34.16480 -117.66548 26935 ft 483 kts 50°
2026-04-26 04:26 34.18583 -117.63430 26943 ft 480 kts 49°
2026-04-26 04:26 34.20701 -117.60286 26943 ft 480 kts 50°
2026-04-26 04:26 34.22798 -117.57167 26941 ft 480 kts 50°
2026-04-26 04:27 34.24896 -117.54046 26939 ft 480 kts 50°
2026-04-26 04:27 34.26985 -117.50934 26942 ft 481 kts 50°
2026-04-26 04:27 34.29097 -117.47784 26927 ft 479 kts 50°
2026-04-26 04:27 34.31213 -117.44627 26908 ft 479 kts 50°
2026-04-26 04:28 34.33305 -117.41501 26913 ft 480 kts 50°
2026-04-26 04:28 34.35405 -117.38361 26896 ft 478 kts 50°
2026-04-26 04:28 34.37477 -117.35259 26893 ft 477 kts 50°
2026-04-26 04:28 34.39565 -117.32131 26879 ft 478 kts 50°
2026-04-26 04:29 34.41661 -117.28988 26870 ft 477 kts 51°
2026-04-26 04:29 34.43750 -117.25853 26900 ft 479 kts 51°
2026-04-26 04:29 34.45838 -117.22716 26887 ft 479 kts 51°
2026-04-26 04:29 34.47939 -117.19559 26888 ft 478 kts 51°
2026-04-26 04:30 34.50024 -117.16420 26887 ft 476 kts 51°
2026-04-26 04:30 34.52100 -117.13294 26878 ft 476 kts 51°
2026-04-26 04:30 34.54157 -117.10192 26890 ft 476 kts 51°
2026-04-26 04:30 34.56287 -117.07050 26886 ft 477 kts 50°
2026-04-26 04:31 34.58413 -117.03966 26867 ft 476 kts 50°
2026-04-26 04:31 34.60541 -117.00875 26885 ft 476 kts 50°
2026-04-26 04:31 34.62672 -116.97777 26872 ft 478 kts 50°
2026-04-26 04:31 34.64826 -116.94640 26939 ft 489 kts 50°
2026-04-26 04:32 34.66998 -116.91471 27529 ft 487 kts 50°
2026-04-26 04:32 34.69147 -116.88333 28236 ft 482 kts 50°
2026-04-26 04:32 34.71291 -116.85200 28689 ft 483 kts 50°
2026-04-26 04:32 34.73431 -116.82066 28977 ft 488 kts 50°
2026-04-26 04:33 34.75614 -116.78868 29258 ft 493 kts 50°
2026-04-26 04:33 34.77813 -116.75644 29633 ft 495 kts 50°
2026-04-26 04:33 34.80020 -116.72404 30059 ft 496 kts 50°
2026-04-26 04:33 34.82203 -116.69196 30394 ft 499 kts 50°
2026-04-26 04:34 34.84434 -116.65915 30657 ft 503 kts 50°
2026-04-26 04:34 34.86679 -116.62658 30898 ft 507 kts 47°
2026-04-26 04:34 34.89079 -116.59451 31281 ft 508 kts 47°
2026-04-26 04:34 34.91456 -116.56308 31640 ft 509 kts 47°
2026-04-26 04:35 34.93848 -116.53136 31919 ft 511 kts 46°
2026-04-26 04:35 34.96262 -116.49926 32126 ft 516 kts 46°
2026-04-26 04:35 34.98704 -116.46671 32346 ft 520 kts 46°
2026-04-26 04:35 35.01132 -116.43426 32596 ft 523 kts 47°
2026-04-26 04:36 35.03603 -116.40118 32804 ft 526 kts 47°
2026-04-26 04:36 35.08534 -116.33501 32812 ft 529 kts 47°
2026-04-26 04:37 35.13479 -116.26850 32783 ft 525 kts 48°
2026-04-26 04:37 35.18417 -116.20190 32792 ft 538 kts 48°
2026-04-26 04:38 35.23518 -116.13297 32793 ft 552 kts 48°
2026-04-26 04:38 35.28668 -116.06322 32782 ft 556 kts 47°
2026-04-26 04:39 35.33833 -115.99313 32780 ft 555 kts 47°
2026-04-26 04:39 35.38987 -115.92302 32792 ft 555 kts 48°
2026-04-26 04:40 35.44171 -115.85237 32800 ft 557 kts 48°
2026-04-26 04:40 35.49315 -115.78212 32801 ft 554 kts 48°
2026-04-26 04:41 35.54464 -115.71165 32793 ft 552 kts 48°
2026-04-26 04:41 35.59571 -115.64160 32811 ft 555 kts 48°
2026-04-26 04:42 35.64701 -115.57111 32816 ft 552 kts 48°
2026-04-26 04:42 35.69821 -115.50059 32808 ft 553 kts 48°
2026-04-26 04:43 35.74933 -115.43003 32813 ft 552 kts 48°
2026-04-26 04:43 35.80016 -115.35973 32800 ft 553 kts 49°
2026-04-26 04:44 35.85106 -115.28916 32788 ft 550 kts 49°
2026-04-26 04:44 35.90182 -115.21865 32802 ft 551 kts 49°
2026-04-26 04:45 35.95260 -115.14797 32777 ft 550 kts 49°
2026-04-26 04:45 36.00326 -115.07730 32779 ft 550 kts 49°
2026-04-26 04:46 36.05404 -115.00632 32761 ft 549 kts 49°
2026-04-26 04:46 36.10458 -114.93552 32751 ft 549 kts 49°
2026-04-26 04:47 36.15514 -114.86482 32742 ft 552 kts 46°
2026-04-26 04:47 36.21430 -114.80553 32747 ft 548 kts 29°
2026-04-26 04:48 36.31430 -114.73854 32749 ft 545 kts 26°
2026-04-26 04:48 36.38137 -114.69418 32763 ft 546 kts 26°
2026-04-26 04:49 36.44808 -114.64990 32753 ft 542 kts 26°
2026-04-26 04:49 36.51466 -114.60560 32757 ft 543 kts 26°
2026-04-26 04:50 36.58109 -114.56127 32762 ft 541 kts 26°
2026-04-26 04:50 36.64753 -114.51685 32767 ft 542 kts 26°
2026-04-26 04:51 36.71381 -114.47244 32760 ft 541 kts 26°
2026-04-26 04:51 36.77788 -114.42364 32767 ft 544 kts 31°
2026-04-26 04:52 36.84126 -114.37324 32762 ft 538 kts 30°
2026-04-26 04:52 36.90496 -114.32280 32766 ft 542 kts 31°
2026-04-26 04:53 36.96861 -114.27245 32765 ft 540 kts 31°
2026-04-26 04:53 37.03247 -114.22194 32761 ft 540 kts 31°
2026-04-26 04:54 37.09576 -114.17184 32783 ft 539 kts 31°
2026-04-26 04:54 37.15937 -114.12142 32782 ft 539 kts 31°
2026-04-26 04:55 37.22265 -114.07117 32799 ft 539 kts 31°
2026-04-26 04:55 37.28562 -114.02108 32807 ft 539 kts 31°
2026-04-26 04:56 37.34867 -113.97083 32820 ft 535 kts 31°
2026-04-26 04:56 37.41168 -113.92051 32835 ft 538 kts 31°
2026-04-26 04:57 37.47467 -113.87010 32834 ft 537 kts 31°
2026-04-26 04:57 37.53778 -113.81950 32842 ft 537 kts 31°
2026-04-26 04:58 37.60067 -113.76897 32856 ft 537 kts 31°
2026-04-26 04:58 37.66362 -113.71830 32856 ft 535 kts 31°
2026-04-26 04:59 37.72637 -113.66769 32857 ft 535 kts 31°
2026-04-26 04:59 37.78912 -113.61696 32863 ft 536 kts 31°
2026-04-26 05:00 37.85191 -113.56611 32870 ft 535 kts 31°
2026-04-26 05:00 37.91429 -113.51546 32867 ft 534 kts 32°
2026-04-26 05:01 37.97200 -113.45631 32865 ft 533 kts 41°
2026-04-26 05:01 38.02719 -113.39377 32869 ft 535 kts 41°
2026-04-26 05:02 38.08231 -113.33112 32861 ft 533 kts 42°
2026-04-26 05:02 38.13744 -113.26835 32852 ft 535 kts 41°
2026-04-26 05:03 38.19274 -113.20527 32848 ft 533 kts 42°
2026-04-26 05:03 38.24808 -113.14200 32845 ft 534 kts 42°
2026-04-26 05:04 38.30309 -113.07898 32845 ft 535 kts 42°
2026-04-26 05:04 38.35896 -113.01614 32820 ft 535 kts 37°
2026-04-26 05:05 38.42092 -112.96356 32825 ft 536 kts 31°
2026-04-26 05:05 38.48342 -112.91269 32837 ft 533 kts 31°
2026-04-26 05:06 38.54620 -112.86143 32840 ft 534 kts 31°
2026-04-26 05:06 38.60862 -112.81032 32846 ft 533 kts 31°
2026-04-26 05:07 38.67108 -112.75905 32857 ft 534 kts 31°
2026-04-26 05:07 38.73347 -112.70770 32853 ft 533 kts 31°
2026-04-26 05:08 38.79585 -112.65627 32864 ft 534 kts 31°
2026-04-26 05:08 38.85821 -112.60473 32850 ft 534 kts 31°
2026-04-26 05:09 38.92048 -112.55315 32843 ft 534 kts 31°
2026-04-26 05:09 38.98282 -112.50141 32836 ft 534 kts 31°
2026-04-26 05:10 39.04503 -112.44966 32833 ft 533 kts 31°
2026-04-26 05:10 39.10760 -112.39750 32840 ft 533 kts 31°
2026-04-26 05:11 39.16987 -112.34548 32844 ft 534 kts 32°
2026-04-26 05:11 39.23184 -112.29360 32830 ft 534 kts 32°
2026-04-26 05:12 39.29426 -112.24123 32828 ft 535 kts 32°
2026-04-26 05:12 39.35681 -112.18864 32841 ft 535 kts 32°
2026-04-26 05:13 39.41907 -112.13618 32834 ft 535 kts 32°
2026-04-26 05:13 39.48114 -112.08376 32841 ft 536 kts 32°
2026-04-26 05:14 39.54337 -112.03110 32856 ft 536 kts 32°
2026-04-26 05:14 39.60572 -111.97821 32859 ft 535 kts 32°
2026-04-26 05:15 39.66822 -111.92509 32850 ft 537 kts 31°
2026-04-26 05:15 39.73044 -111.87209 32854 ft 537 kts 31°
2026-04-26 05:16 39.79283 -111.81883 32856 ft 536 kts 31°
2026-04-26 05:16 39.85535 -111.76533 32855 ft 537 kts 31°
2026-04-26 05:17 39.91739 -111.71214 32854 ft 537 kts 31°
2026-04-26 05:17 39.97970 -111.65859 32856 ft 538 kts 31°
2026-04-26 05:18 40.04219 -111.60476 32820 ft 537 kts 31°
2026-04-26 05:18 40.10442 -111.55105 32821 ft 537 kts 31°
2026-04-26 05:19 40.16670 -111.49716 32827 ft 537 kts 31°
2026-04-26 05:19 40.22891 -111.44322 32849 ft 539 kts 31°
2026-04-26 05:20 40.29096 -111.38930 32868 ft 536 kts 31°
2026-04-26 05:20 40.35331 -111.33500 32865 ft 539 kts 31°
2026-04-26 05:21 40.41550 -111.28070 32859 ft 536 kts 31°
2026-04-26 05:21 40.47758 -111.22639 32861 ft 537 kts 31°
2026-04-26 05:22 40.53960 -111.17200 32868 ft 537 kts 31°
2026-04-26 05:22 40.60161 -111.11750 32885 ft 536 kts 31°
2026-04-26 05:23 40.66361 -111.06289 32890 ft 539 kts 31°
2026-04-26 05:23 40.72557 -111.00819 32891 ft 537 kts 31°
2026-04-26 05:24 40.78775 -110.95316 32891 ft 537 kts 31°
2026-04-26 05:24 40.84964 -110.89826 32892 ft 537 kts 31°
2026-04-26 05:25 40.91179 -110.84302 32900 ft 538 kts 31°
2026-04-26 05:25 40.97334 -110.78817 32906 ft 537 kts 31°
2026-04-26 05:26 41.03527 -110.73286 32915 ft 536 kts 31°
2026-04-26 05:26 41.09746 -110.67721 32915 ft 538 kts 31°
2026-04-26 05:27 41.15929 -110.62172 32897 ft 538 kts 31°
2026-04-26 05:27 41.22111 -110.56613 32889 ft 540 kts 31°
2026-04-26 05:28 41.28321 -110.51015 32879 ft 540 kts 31°
2026-04-26 05:28 41.34538 -110.45398 32860 ft 541 kts 31°
2026-04-26 05:29 41.40435 -110.39196 32851 ft 544 kts 39°
2026-04-26 05:29 41.46028 -110.32396 32860 ft 545 kts 40°
2026-04-26 05:30 41.51592 -110.25590 32859 ft 545 kts 40°
2026-04-26 05:30 41.57193 -110.18719 32853 ft 546 kts 40°
2026-04-26 05:31 41.62763 -110.11868 32850 ft 547 kts 40°
2026-04-26 05:31 41.68322 -110.05012 32840 ft 545 kts 40°
2026-04-26 05:32 41.73893 -109.98124 32842 ft 547 kts 40°
2026-04-26 05:32 41.79470 -109.91210 32852 ft 546 kts 40°
2026-04-26 05:33 41.85030 -109.84301 32838 ft 548 kts 40°
2026-04-26 05:33 41.90629 -109.77325 32842 ft 547 kts 40°
2026-04-26 05:34 41.96184 -109.70387 32852 ft 550 kts 40°
2026-04-26 05:34 42.01790 -109.63367 32843 ft 548 kts 40°
2026-04-26 05:35 42.07362 -109.56373 32862 ft 549 kts 40°
2026-04-26 05:35 42.12916 -109.49383 32859 ft 548 kts 40°
2026-04-26 05:36 42.18496 -109.42344 32866 ft 549 kts 40°
2026-04-26 05:36 42.24004 -109.35376 32864 ft 547 kts 39°
2026-04-26 05:37 42.29572 -109.28317 32864 ft 550 kts 40°
2026-04-26 05:37 42.35164 -109.21207 32866 ft 550 kts 40°
2026-04-26 05:38 42.40700 -109.14152 32866 ft 552 kts 40°
2026-04-26 05:38 42.46296 -109.07000 32864 ft 550 kts 40°
2026-04-26 05:39 42.51853 -108.99882 32871 ft 552 kts 40°
2026-04-26 05:39 42.57389 -108.92771 32874 ft 552 kts 40°
2026-04-26 05:40 42.62958 -108.85600 32878 ft 553 kts 40°
2026-04-26 05:40 42.68554 -108.78376 32880 ft 552 kts 39°
2026-04-26 05:41 42.74109 -108.71185 32870 ft 554 kts 40°
2026-04-26 05:41 42.79641 -108.64005 32875 ft 554 kts 40°
2026-04-26 05:42 42.85209 -108.56760 32887 ft 552 kts 39°
2026-04-26 05:42 42.90731 -108.49556 32875 ft 554 kts 40°
2026-04-26 05:43 42.96288 -108.42287 32907 ft 553 kts 39°
2026-04-26 05:43 43.01864 -108.34975 32908 ft 556 kts 40°
2026-04-26 05:44 43.07423 -108.27665 32887 ft 555 kts 40°
2026-04-26 05:44 43.12934 -108.20399 32890 ft 554 kts 40°
2026-04-26 05:45 43.18504 -108.13036 32885 ft 555 kts 40°
2026-04-26 05:45 43.24021 -108.05723 32871 ft 554 kts 40°
2026-04-26 05:46 43.29545 -107.98383 32852 ft 556 kts 40°
2026-04-26 05:46 43.35083 -107.91003 32853 ft 555 kts 39°
2026-04-26 05:47 43.40593 -107.83641 32855 ft 555 kts 39°
2026-04-26 05:47 43.46139 -107.76211 32861 ft 557 kts 39°
2026-04-26 05:48 43.51659 -107.68794 32870 ft 555 kts 39°
2026-04-26 05:48 43.57196 -107.61337 32884 ft 557 kts 39°
2026-04-26 05:49 43.65448 -107.50185 32904 ft 556 kts 39°
2026-04-26 05:50 43.70959 -107.42710 32928 ft 556 kts 39°
2026-04-26 05:50 43.76483 -107.35198 32934 ft 554 kts 38°
2026-04-26 05:51 43.81999 -107.27679 32924 ft 558 kts 39°
2026-04-26 05:51 43.87489 -107.20172 32938 ft 558 kts 39°
2026-04-26 05:52 43.93008 -107.12606 32957 ft 560 kts 39°
2026-04-26 05:52 43.98511 -107.05039 32975 ft 558 kts 39°
2026-04-26 05:53 44.03991 -106.97483 32990 ft 559 kts 39°
2026-04-26 05:53 44.09520 -106.89841 32973 ft 558 kts 39°
2026-04-26 05:54 44.15007 -106.82235 32964 ft 561 kts 39°
2026-04-26 05:54 44.20484 -106.74616 32971 ft 554 kts 39°
2026-04-26 05:55 44.25982 -106.66956 32978 ft 561 kts 39°
2026-04-26 05:55 44.31465 -106.59287 32983 ft 555 kts 39°
2026-04-26 05:56 44.36892 -106.51682 32984 ft 560 kts 39°
2026-04-26 05:56 44.42353 -106.44003 32987 ft 556 kts 39°
2026-04-26 05:57 44.47822 -106.36296 32983 ft 560 kts 39°
2026-04-26 05:57 44.53269 -106.28591 32966 ft 555 kts 39°
2026-04-26 05:58 44.58745 -106.20832 32964 ft 561 kts 39°
2026-04-26 05:58 44.64182 -106.13100 32958 ft 559 kts 39°
2026-04-26 05:59 44.69632 -106.05328 32958 ft 559 kts 40°
2026-04-26 05:59 44.75080 -105.97538 32962 ft 559 kts 40°
2026-04-26 06:00 44.80505 -105.89761 32964 ft 561 kts 40°
2026-04-26 06:00 44.85976 -105.81890 32976 ft 559 kts 39°
2026-04-26 06:01 44.91404 -105.74062 32972 ft 559 kts 40°
2026-04-26 06:01 44.96814 -105.66238 32974 ft 559 kts 40°
2026-04-26 06:02 45.02248 -105.58353 32974 ft 558 kts 39°
2026-04-26 06:02 45.07604 -105.50561 32958 ft 555 kts 40°
2026-04-26 06:03 45.12999 -105.42693 32982 ft 556 kts 40°
2026-04-26 06:03 45.18366 -105.34837 33001 ft 554 kts 41°
2026-04-26 06:04 45.23719 -105.26986 32994 ft 558 kts 41°
2026-04-26 06:04 45.29076 -105.19099 32992 ft 554 kts 41°
2026-04-26 06:05 45.34386 -105.11264 32997 ft 553 kts 41°
2026-04-26 06:05 45.39722 -105.03363 33004 ft 551 kts 41°
2026-04-26 06:06 45.45011 -104.95513 32989 ft 549 kts 41°
2026-04-26 06:06 45.50241 -104.87724 33009 ft 546 kts 41°
2026-04-26 06:07 45.55474 -104.79912 32997 ft 542 kts 41°
2026-04-26 06:07 45.60649 -104.72164 32996 ft 544 kts 42°
2026-04-26 06:08 45.65859 -104.64342 32999 ft 541 kts 42°
2026-04-26 06:08 45.71029 -104.56554 33001 ft 540 kts 42°
2026-04-26 06:09 45.76133 -104.48844 33014 ft 535 kts 42°
2026-04-26 06:09 45.81286 -104.41043 33008 ft 538 kts 42°
2026-04-26 06:10 45.86388 -104.33292 33007 ft 531 kts 43°
2026-04-26 06:10 45.91452 -104.25580 33004 ft 537 kts 43°
2026-04-26 06:11 45.96532 -104.17817 33006 ft 531 kts 43°
2026-04-26 06:11 46.01577 -104.10088 33017 ft 534 kts 43°
2026-04-26 06:12 46.06636 -104.02316 33023 ft 531 kts 43°
2026-04-26 06:12 46.11662 -103.94572 33019 ft 530 kts 43°
2026-04-26 06:13 46.16682 -103.86815 33020 ft 530 kts 43°
2026-04-26 06:13 46.21688 -103.79056 33025 ft 529 kts 43°
2026-04-26 06:14 46.26710 -103.71252 33018 ft 530 kts 43°
2026-04-26 06:14 46.31725 -103.63435 33017 ft 530 kts 44°
2026-04-26 06:15 46.36705 -103.55651 33023 ft 531 kts 44°
2026-04-26 06:15 46.41716 -103.47794 33031 ft 530 kts 43°
2026-04-26 06:16 46.46704 -103.39951 33024 ft 528 kts 43°
2026-04-26 06:16 46.51639 -103.32170 33024 ft 530 kts 44°
2026-04-26 06:17 46.56627 -103.24282 33020 ft 528 kts 44°
2026-04-26 06:17 46.61564 -103.16451 33019 ft 527 kts 44°
2026-04-26 06:18 46.66488 -103.08620 33021 ft 527 kts 44°
2026-04-26 06:18 46.71437 -103.00724 33019 ft 527 kts 45°
2026-04-26 06:19 46.76368 -102.92834 33012 ft 526 kts 45°
2026-04-26 06:19 46.81276 -102.84959 32997 ft 526 kts 45°
2026-04-26 06:20 46.86295 -102.77251 33002 ft 521 kts 37°
2026-04-26 06:20 46.92216 -102.71468 33023 ft 514 kts 25°
2026-04-26 06:21 46.98458 -102.66278 33032 ft 515 kts 26°
2026-04-26 06:21 47.04633 -102.61036 33033 ft 515 kts 26°
2026-04-26 06:22 47.10807 -102.55719 33036 ft 515 kts 26°
2026-04-26 06:22 47.16969 -102.50367 33033 ft 514 kts 26°
2026-04-26 06:23 47.23114 -102.45000 33033 ft 513 kts 26°
2026-04-26 06:23 47.29204 -102.39656 33032 ft 513 kts 26°
2026-04-26 06:24 47.35345 -102.34247 33027 ft 512 kts 27°
2026-04-26 06:24 47.41456 -102.28848 33021 ft 513 kts 27°
2026-04-26 06:25 47.47546 -102.23450 33022 ft 513 kts 27°
2026-04-26 06:25 47.53674 -102.18003 33023 ft 513 kts 27°
2026-04-26 06:26 47.59788 -102.12553 33024 ft 514 kts 27°
2026-04-26 06:26 47.65866 -102.07119 33025 ft 513 kts 27°
2026-04-26 06:27 47.71960 -102.01656 33027 ft 511 kts 27°
2026-04-26 06:27 47.78044 -101.96187 33027 ft 511 kts 27°
2026-04-26 06:28 47.84145 -101.90688 33026 ft 512 kts 27°
2026-04-26 06:28 47.90258 -101.85162 33024 ft 513 kts 27°
2026-04-26 06:29 47.96331 -101.79658 33022 ft 512 kts 27°
2026-04-26 06:29 48.02420 -101.74123 33018 ft 513 kts 27°
2026-04-26 06:30 48.08550 -101.68534 33015 ft 513 kts 27°
2026-04-26 06:30 48.14618 -101.62987 33017 ft 513 kts 27°
2026-04-26 06:31 48.20706 -101.57407 33020 ft 513 kts 27°
2026-04-26 06:31 48.26767 -101.51836 33023 ft 513 kts 27°
2026-04-26 06:32 48.32833 -101.46243 33024 ft 514 kts 27°
2026-04-26 06:32 48.38953 -101.40585 33027 ft 514 kts 27°
2026-04-26 06:33 48.45037 -101.34945 33025 ft 515 kts 28°
2026-04-26 06:33 48.51125 -101.29284 33018 ft 515 kts 28°
2026-04-26 06:34 48.57204 -101.23616 33020 ft 515 kts 28°
2026-04-26 06:34 48.63278 -101.17936 33026 ft 516 kts 28°
2026-04-26 06:35 48.69357 -101.12235 33029 ft 515 kts 28°
2026-04-26 06:35 48.75460 -101.06496 33024 ft 517 kts 28°
2026-04-26 06:36 48.81549 -101.00751 33026 ft 516 kts 28°
2026-04-26 06:36 48.87643 -100.94987 33023 ft 516 kts 28°
2026-04-26 06:37 48.93759 -100.89185 33023 ft 517 kts 28°
2026-04-26 06:37 48.99876 -100.83365 33018 ft 517 kts 28°
2026-04-26 06:38 49.06005 -100.77514 33010 ft 518 kts 28°
2026-04-26 06:38 49.12084 -100.71694 33007 ft 518 kts 28°
2026-04-26 06:39 49.18182 -100.65839 33001 ft 518 kts 28°
2026-04-26 06:39 49.24302 -100.59946 32994 ft 520 kts 28°
2026-04-26 06:40 49.30380 -100.54075 32997 ft 519 kts 28°
2026-04-26 06:40 49.36530 -100.48118 32996 ft 519 kts 28°
2026-04-26 06:41 49.42639 -100.42181 33005 ft 520 kts 28°
2026-04-26 06:41 49.48745 -100.36232 33004 ft 521 kts 28°
2026-04-26 06:42 49.54877 -100.30238 32992 ft 522 kts 29°
2026-04-26 06:42 49.60962 -100.24271 32992 ft 523 kts 29°
2026-04-26 06:43 49.67108 -100.18227 32987 ft 522 kts 29°
2026-04-26 06:43 49.73218 -100.12200 32991 ft 523 kts 29°
2026-04-26 06:44 49.79383 -100.06101 32998 ft 524 kts 30°
2026-04-26 06:44 49.85519 -100.00011 33002 ft 523 kts 29°
2026-04-26 06:45 49.91733 -99.94100 32993 ft 520 kts 22°
2026-04-26 06:45 49.98306 -99.89516 32988 ft 520 kts 20°
2026-04-26 06:46 50.04896 -99.85015 32980 ft 519 kts 20°
2026-04-26 06:46 50.11546 -99.80450 32973 ft 520 kts 20°
2026-04-26 06:47 50.18124 -99.75917 32948 ft 518 kts 20°
2026-04-26 06:47 50.24735 -99.71344 32949 ft 519 kts 20°
2026-04-26 06:48 50.31285 -99.66797 32948 ft 519 kts 20°
2026-04-26 06:48 50.37937 -99.62165 32954 ft 520 kts 20°
2026-04-26 06:49 50.44602 -99.57509 32950 ft 520 kts 21°
2026-04-26 06:49 50.51204 -99.52882 32962 ft 519 kts 21°
2026-04-26 06:50 50.57804 -99.48241 32964 ft 517 kts 21°
2026-04-26 06:50 50.64426 -99.43572 32973 ft 518 kts 21°
2026-04-26 06:51 50.71022 -99.38906 32985 ft 517 kts 21°
2026-04-26 06:51 50.80871 -99.31912 32973 ft 517 kts 22°
2026-04-26 06:52 50.87399 -99.27258 32974 ft 518 kts 22°
2026-04-26 06:52 50.93952 -99.22572 32983 ft 519 kts 22°
2026-04-26 06:53 51.00474 -99.17894 32977 ft 517 kts 22°
2026-04-26 06:53 51.07008 -99.13193 32976 ft 517 kts 22°
2026-04-26 06:54 51.13581 -99.08449 32975 ft 518 kts 22°
2026-04-26 06:54 51.20083 -99.03741 32975 ft 517 kts 22°
2026-04-26 06:55 51.26608 -98.99001 32977 ft 517 kts 22°
2026-04-26 06:55 51.33179 -98.94214 32961 ft 519 kts 22°
2026-04-26 06:56 51.39706 -98.89444 32964 ft 518 kts 23°
2026-04-26 06:56 51.46244 -98.84650 32966 ft 518 kts 23°
2026-04-26 06:57 51.52797 -98.79830 32966 ft 519 kts 23°
2026-04-26 06:57 51.59344 -98.74999 32954 ft 519 kts 23°
2026-04-26 06:58 51.65896 -98.70149 32961 ft 519 kts 23°
2026-04-26 06:58 51.72427 -98.65299 32962 ft 518 kts 23°
2026-04-26 06:59 51.78991 -98.60410 32954 ft 519 kts 23°
2026-04-26 06:59 51.85494 -98.55549 32956 ft 518 kts 24°
2026-04-26 07:00 51.92034 -98.50646 32958 ft 518 kts 24°
2026-04-26 07:00 51.98578 -98.45723 32956 ft 517 kts 24°
2026-04-26 07:01 52.05048 -98.40841 32957 ft 518 kts 24°
2026-04-26 07:01 52.11583 -98.35894 32959 ft 518 kts 24°
2026-04-26 07:02 52.18134 -98.30918 32953 ft 517 kts 25°
2026-04-26 07:02 52.24612 -98.25982 32953 ft 517 kts 25°
2026-04-26 07:03 52.31101 -98.21021 32958 ft 518 kts 25°
2026-04-26 07:03 52.37618 -98.16022 32957 ft 517 kts 25°
2026-04-26 07:04 52.44123 -98.11017 32956 ft 517 kts 25°
2026-04-26 07:04 52.50607 -98.06011 32957 ft 517 kts 25°
2026-04-26 07:05 52.57103 -98.00980 32955 ft 518 kts 25°
2026-04-26 07:05 52.63598 -97.95933 32957 ft 517 kts 25°
2026-04-26 07:06 52.70080 -97.90879 32956 ft 518 kts 25°
2026-04-26 07:06 52.76553 -97.85816 32956 ft 518 kts 25°
2026-04-26 07:07 52.83062 -97.80707 32954 ft 519 kts 25°
2026-04-26 07:07 52.89577 -97.75577 32960 ft 518 kts 25°
2026-04-26 07:08 52.96036 -97.70474 32968 ft 520 kts 25°
2026-04-26 07:08 53.02564 -97.65299 32969 ft 519 kts 26°
2026-04-26 07:09 53.09027 -97.60158 32969 ft 519 kts 26°
2026-04-26 07:09 53.15554 -97.54949 32962 ft 519 kts 26°
2026-04-26 07:11 53.31749 -97.41948 32964 ft 519 kts 26°
2026-04-26 07:11 53.38241 -97.36705 32964 ft 519 kts 26°
2026-04-26 07:12 53.44707 -97.31465 32960 ft 519 kts 27°
2026-04-26 07:12 53.51210 -97.26177 32961 ft 519 kts 27°
2026-04-26 07:13 53.57650 -97.20924 32956 ft 517 kts 27°
2026-04-26 07:13 53.64122 -97.15625 32961 ft 517 kts 27°
2026-04-26 07:14 53.70558 -97.10339 32961 ft 516 kts 27°
2026-04-26 07:14 53.77016 -97.05016 32965 ft 516 kts 27°
2026-04-26 07:15 53.83415 -96.99722 32962 ft 516 kts 27°
2026-04-26 07:15 53.89845 -96.94385 32967 ft 515 kts 28°
2026-04-26 07:16 53.96274 -96.89031 32969 ft 516 kts 28°
2026-04-26 07:16 54.02685 -96.83674 32967 ft 514 kts 28°
2026-04-26 07:17 54.09094 -96.78300 32968 ft 515 kts 28°
2026-04-26 07:17 54.15533 -96.72881 32973 ft 514 kts 28°
2026-04-26 07:18 54.21881 -96.67520 32968 ft 513 kts 28°
2026-04-26 07:18 54.28247 -96.62126 32965 ft 514 kts 28°
2026-04-26 07:19 54.34670 -96.56664 32959 ft 513 kts 28°
2026-04-26 07:19 54.41081 -96.51194 32957 ft 513 kts 28°
2026-04-26 07:20 54.47485 -96.45710 32968 ft 513 kts 28°
2026-04-26 07:20 54.53837 -96.40251 32965 ft 512 kts 28°
2026-04-26 07:21 54.60231 -96.34738 32964 ft 512 kts 29°
2026-04-26 07:21 54.66535 -96.29283 32969 ft 511 kts 30°
2026-04-26 07:22 54.72852 -96.23798 32953 ft 510 kts 30°
2026-04-26 07:22 54.79208 -96.18258 32971 ft 511 kts 30°
2026-04-26 07:23 54.85546 -96.12715 32963 ft 511 kts 30°
2026-04-26 07:23 54.91933 -96.07109 32959 ft 510 kts 30°
2026-04-26 07:24 54.98244 -96.01575 32960 ft 510 kts 27°
2026-04-26 07:24 55.05023 -95.97954 32963 ft 516 kts 13°
2026-04-26 07:25 55.12040 -95.95615 32966 ft 515 kts 13°
2026-04-26 07:25 55.19060 -95.93235 32959 ft 516 kts 13°
2026-04-26 07:26 55.26057 -95.90816 32964 ft 514 kts 13°
2026-04-26 07:26 55.33086 -95.88357 32953 ft 516 kts 14°
2026-04-26 07:27 55.40145 -95.85867 32967 ft 515 kts 14°
2026-04-26 07:27 55.47174 -95.83372 32960 ft 515 kts 14°
2026-04-26 07:28 55.54235 -95.80853 32959 ft 514 kts 14°
2026-04-26 07:28 55.61216 -95.78352 32973 ft 514 kts 14°
2026-04-26 07:29 55.68259 -95.75819 32968 ft 513 kts 14°
2026-04-26 07:29 55.75269 -95.73289 32965 ft 513 kts 14°
2026-04-26 07:30 55.82294 -95.70742 32970 ft 512 kts 14°
2026-04-26 07:30 55.89259 -95.68208 32972 ft 512 kts 14°
2026-04-26 07:31 55.96252 -95.65654 32971 ft 512 kts 14°
2026-04-26 07:31 56.03240 -95.63093 32984 ft 512 kts 14°
2026-04-26 07:32 56.10236 -95.60519 32986 ft 512 kts 14°
2026-04-26 07:32 56.17177 -95.57956 32989 ft 512 kts 14°
2026-04-26 07:33 56.24120 -95.55383 32994 ft 511 kts 14°
2026-04-26 07:33 56.31101 -95.52786 32992 ft 511 kts 14°
2026-04-26 07:34 56.38055 -95.50189 33004 ft 511 kts 14°
2026-04-26 07:34 56.45042 -95.47571 33008 ft 511 kts 14°
2026-04-26 07:35 56.51985 -95.44959 33014 ft 511 kts 14°
2026-04-26 07:35 56.58956 -95.42327 33024 ft 511 kts 14°
2026-04-26 07:36 56.65885 -95.39700 33035 ft 510 kts 15°
2026-04-26 07:36 56.72797 -95.37071 33039 ft 510 kts 14°
2026-04-26 07:37 56.79764 -95.34410 33048 ft 510 kts 15°
2026-04-26 07:37 56.86690 -95.31756 33052 ft 509 kts 15°
2026-04-26 07:38 56.93594 -95.29099 33055 ft 510 kts 15°
2026-04-26 07:38 57.00500 -95.26430 33058 ft 509 kts 15°
2026-04-26 07:39 57.07420 -95.23748 33058 ft 510 kts 15°
2026-04-26 07:39 57.14343 -95.21054 33058 ft 509 kts 15°
2026-04-26 07:40 57.21255 -95.18353 33062 ft 509 kts 16°
2026-04-26 07:40 57.28164 -95.15643 33064 ft 509 kts 16°
2026-04-26 07:41 57.35063 -95.12927 33068 ft 509 kts 16°
2026-04-26 07:41 57.41981 -95.10194 33069 ft 509 kts 16°
2026-04-26 07:42 57.48886 -95.07454 33072 ft 509 kts 16°
2026-04-26 07:42 57.55783 -95.04707 33074 ft 509 kts 16°
2026-04-26 07:43 57.62687 -95.01946 33080 ft 509 kts 16°
2026-04-26 07:43 57.69576 -94.99181 33083 ft 509 kts 16°
2026-04-26 07:44 57.76512 -94.96387 33087 ft 509 kts 16°
2026-04-26 07:44 57.83405 -94.93598 33089 ft 508 kts 16°
2026-04-26 07:45 57.90252 -94.90818 33099 ft 508 kts 17°
2026-04-26 07:45 57.97155 -94.88002 33105 ft 508 kts 17°
2026-04-26 07:46 58.04050 -94.85181 33116 ft 508 kts 17°
2026-04-26 07:46 58.10914 -94.82360 33119 ft 508 kts 17°
2026-04-26 07:47 58.17827 -94.79507 33120 ft 508 kts 17°
2026-04-26 07:47 58.24676 -94.76671 33110 ft 508 kts 17°
2026-04-26 07:48 58.31578 -94.73801 33120 ft 508 kts 17°
2026-04-26 07:48 58.38435 -94.70937 33125 ft 507 kts 17°
2026-04-26 07:49 58.45338 -94.68044 33128 ft 508 kts 17°
2026-04-26 07:49 58.52177 -94.65166 33135 ft 507 kts 17°
2026-04-26 07:50 58.62526 -94.60789 33139 ft 509 kts 17°
2026-04-26 07:50 58.69388 -94.57871 33145 ft 507 kts 17°
2026-04-26 07:51 58.76247 -94.54942 33150 ft 510 kts 17°
2026-04-26 07:51 58.83156 -94.51983 33148 ft 508 kts 17°
2026-04-26 07:52 58.90002 -94.49037 33144 ft 507 kts 17°
2026-04-26 07:52 58.96878 -94.46066 33146 ft 508 kts 17°
2026-04-26 07:53 59.03769 -94.43076 33153 ft 507 kts 17°
2026-04-26 07:53 59.10627 -94.40088 33157 ft 508 kts 17°
2026-04-26 07:54 59.17491 -94.37086 33150 ft 509 kts 17°
2026-04-26 07:54 59.24335 -94.34080 33155 ft 507 kts 17°
2026-04-26 07:55 59.31197 -94.31052 33155 ft 509 kts 17°
2026-04-26 07:55 59.38085 -94.28004 33158 ft 507 kts 17°
2026-04-26 07:56 59.44945 -94.24952 33163 ft 508 kts 17°
2026-04-26 07:56 59.51776 -94.21902 33168 ft 506 kts 17°
2026-04-26 07:57 59.58677 -94.18806 33167 ft 508 kts 17°
2026-04-26 07:57 59.65533 -94.15720 33172 ft 506 kts 17°
2026-04-26 07:58 59.72383 -94.12621 33184 ft 507 kts 17°
2026-04-26 07:58 59.79217 -94.09518 33189 ft 506 kts 17°
2026-04-26 07:59 59.86082 -94.06387 33191 ft 508 kts 17°
2026-04-26 07:59 59.92959 -94.03238 33188 ft 508 kts 17°
2026-04-26 08:00 59.99673 -93.99558 33198 ft 502 kts 26°
2026-04-26 08:00 60.05833 -93.93135 33198 ft 498 kts 33°
2026-04-26 08:01 60.11829 -93.86297 33186 ft 499 kts 34°
2026-04-26 08:01 60.17824 -93.79396 33195 ft 498 kts 34°
2026-04-26 08:02 60.23817 -93.72448 33202 ft 498 kts 34°
2026-04-26 08:02 60.29792 -93.65480 33200 ft 500 kts 34°
2026-04-26 08:03 60.35762 -93.58485 33204 ft 500 kts 34°
2026-04-26 08:03 60.41783 -93.51394 33209 ft 503 kts 34°
2026-04-26 08:04 60.47759 -93.44325 33233 ft 503 kts 34°
2026-04-26 08:04 60.53814 -93.37131 33235 ft 503 kts 34°
2026-04-26 08:05 60.59803 -93.29985 33251 ft 503 kts 36°
2026-04-26 08:05 60.65822 -93.22770 33236 ft 504 kts 36°
2026-04-26 08:06 60.71830 -93.15537 33245 ft 504 kts 36°
2026-04-26 08:06 60.77858 -93.08247 33247 ft 507 kts 36°
2026-04-26 08:07 60.83919 -93.00885 33253 ft 507 kts 36°
2026-04-26 08:07 60.89954 -92.93523 33250 ft 506 kts 36°
2026-04-26 08:08 60.95972 -92.86146 33261 ft 509 kts 36°
2026-04-26 08:08 61.02011 -92.78714 33266 ft 507 kts 36°
2026-04-26 08:09 61.08034 -92.71264 33273 ft 511 kts 37°
2026-04-26 08:09 61.14095 -92.63738 33270 ft 509 kts 37°
2026-04-26 08:10 61.20149 -92.56184 33278 ft 511 kts 37°
2026-04-26 08:10 61.26212 -92.48584 33295 ft 511 kts 36°
2026-04-26 08:11 61.32254 -92.40976 33288 ft 512 kts 36°
2026-04-26 08:11 61.38354 -92.33260 33304 ft 514 kts 37°
2026-04-26 08:12 61.44435 -92.25532 33304 ft 514 kts 37°
2026-04-26 08:12 61.50507 -92.17782 33321 ft 513 kts 37°
2026-04-26 08:13 61.56605 -92.09958 33319 ft 516 kts 38°
2026-04-26 08:13 61.62691 -92.02119 33332 ft 513 kts 37°
2026-04-26 08:14 61.68760 -91.94260 33334 ft 517 kts 37°
2026-04-26 08:14 61.74858 -91.86328 33341 ft 516 kts 37°
2026-04-26 08:15 61.80961 -91.78351 33340 ft 521 kts 37°
2026-04-26 08:15 61.87097 -91.70296 33356 ft 520 kts 37°
2026-04-26 08:16 61.93201 -91.62242 33354 ft 520 kts 37°
2026-04-26 08:16 61.99297 -91.54163 33360 ft 519 kts 37°
2026-04-26 08:17 62.05386 -91.46051 33363 ft 520 kts 37°
2026-04-26 08:17 62.11516 -91.37846 33358 ft 520 kts 37°
2026-04-26 08:18 62.17637 -91.29614 33363 ft 521 kts 37°
2026-04-26 08:18 62.23725 -91.21388 33372 ft 521 kts 37°
2026-04-26 08:19 62.29854 -91.13064 33378 ft 522 kts 37°
2026-04-26 08:19 62.35935 -91.04764 33409 ft 526 kts 37°
2026-04-26 08:20 62.42079 -90.96339 33414 ft 523 kts 37°
2026-04-26 08:20 62.48238 -90.87850 33411 ft 526 kts 37°
2026-04-26 08:21 62.54336 -90.79408 33429 ft 526 kts 37°
2026-04-26 08:21 62.60471 -90.70869 33431 ft 526 kts 37°
2026-04-26 08:22 62.66603 -90.62291 33433 ft 527 kts 36°
2026-04-26 08:22 62.72756 -90.53640 33457 ft 528 kts 36°
2026-04-26 08:23 62.78859 -90.45019 33462 ft 527 kts 36°
2026-04-26 08:23 62.85009 -90.36285 33454 ft 527 kts 36°
2026-04-26 08:24 62.91128 -90.27552 33479 ft 527 kts 37°
2026-04-26 08:24 62.97247 -90.18774 33489 ft 530 kts 37°
2026-04-26 08:25 63.03389 -90.09919 33487 ft 528 kts 36°
2026-04-26 08:25 63.09532 -90.01016 33501 ft 531 kts 36°
2026-04-26 08:26 63.15643 -89.92116 33478 ft 529 kts 36°
2026-04-26 08:26 63.21810 -89.83086 33482 ft 532 kts 36°
2026-04-26 08:27 63.27940 -89.74065 33479 ft 531 kts 36°
2026-04-26 08:27 63.34069 -89.64997 33493 ft 532 kts 36°
2026-04-26 08:28 63.40239 -89.55822 33500 ft 533 kts 36°
2026-04-26 08:28 63.46368 -89.46660 33521 ft 534 kts 35°
2026-04-26 08:29 63.52536 -89.37390 33518 ft 534 kts 35°
2026-04-26 08:29 63.58661 -89.28136 33528 ft 535 kts 36°
2026-04-26 08:30 63.64826 -89.18773 33539 ft 536 kts 36°
2026-04-26 08:30 63.70949 -89.09423 33550 ft 535 kts 36°
2026-04-26 08:31 63.77063 -89.00037 33558 ft 536 kts 36°
2026-04-26 08:31 63.83228 -88.90522 33574 ft 537 kts 35°
2026-04-26 08:32 63.89327 -88.81060 33570 ft 536 kts 35°
2026-04-26 08:32 63.95470 -88.71476 33579 ft 537 kts 35°
2026-04-26 08:33 64.01608 -88.61849 33576 ft 537 kts 35°
2026-04-26 08:33 64.07749 -88.52164 33581 ft 540 kts 34°
2026-04-26 08:34 64.13879 -88.42444 33556 ft 538 kts 34°
2026-04-26 08:34 64.19983 -88.32713 33580 ft 540 kts 35°
2026-04-26 08:35 64.26122 -88.22872 33589 ft 539 kts 35°
2026-04-26 08:35 64.32280 -88.12945 33593 ft 542 kts 35°
2026-04-26 08:36 64.38409 -88.03010 33597 ft 542 kts 35°
2026-04-26 08:36 64.44495 -87.93088 33610 ft 540 kts 34°
2026-04-26 08:37 64.50622 -87.83046 33613 ft 543 kts 34°
2026-04-26 08:37 64.56791 -87.72877 33612 ft 543 kts 34°
2026-04-26 08:38 64.62917 -87.62721 33611 ft 544 kts 34°
2026-04-26 08:38 64.69041 -87.52512 33622 ft 544 kts 33°
2026-04-26 08:39 64.75183 -87.42214 33636 ft 543 kts 33°
2026-04-26 08:39 64.81249 -87.31986 33636 ft 545 kts 34°
2026-04-26 08:40 64.87366 -87.21613 33645 ft 544 kts 34°
2026-04-26 08:40 64.93480 -87.11186 33648 ft 545 kts 34°
2026-04-26 08:41 64.99205 -86.99429 33648 ft 548 kts 48°
2026-04-26 08:41 65.03603 -86.84781 33658 ft 551 kts 58°
2026-04-26 08:42 65.07656 -86.69542 33663 ft 551 kts 58°
2026-04-26 08:42 65.11658 -86.54147 33647 ft 552 kts 58°
2026-04-26 08:43 65.15631 -86.38619 33654 ft 551 kts 58°
2026-04-26 08:43 65.19581 -86.22998 33635 ft 553 kts 59°
2026-04-26 08:44 65.23492 -86.07377 33635 ft 554 kts 59°
2026-04-26 08:44 65.27405 -85.91606 33637 ft 553 kts 59°
2026-04-26 08:45 65.31289 -85.75827 33630 ft 554 kts 59°
2026-04-26 08:45 65.35156 -85.59997 33634 ft 554 kts 59°
2026-04-26 08:46 65.39029 -85.44019 33642 ft 555 kts 59°
2026-04-26 08:46 65.42865 -85.28077 33648 ft 555 kts 60°
2026-04-26 08:47 65.46702 -85.12013 33658 ft 557 kts 60°
2026-04-26 08:47 65.50523 -84.95895 33681 ft 558 kts 59°
2026-04-26 08:48 65.54356 -84.79607 33683 ft 558 kts 60°
2026-04-26 08:48 65.58144 -84.63383 33682 ft 559 kts 59°
2026-04-26 08:49 65.61930 -84.47049 33701 ft 559 kts 59°
2026-04-26 08:49 65.65716 -84.30593 33710 ft 560 kts 60°
2026-04-26 08:50 65.69465 -84.14170 33713 ft 560 kts 60°
2026-04-26 08:50 65.73197 -83.97697 33720 ft 562 kts 60°
2026-04-26 08:51 65.78803 -83.72716 33714 ft 563 kts 60°
2026-04-26 08:52 65.82506 -83.56052 33713 ft 563 kts 60°
2026-04-26 08:52 65.86214 -83.39234 33716 ft 563 kts 59°
2026-04-26 08:53 65.89880 -83.22478 33705 ft 562 kts 60°
2026-04-26 08:53 65.93539 -83.05621 33705 ft 565 kts 60°
2026-04-26 08:54 65.97218 -82.88535 33712 ft 566 kts 60°
2026-04-26 08:54 66.00839 -82.71584 33723 ft 566 kts 59°
2026-04-26 08:55 66.04451 -82.54538 33728 ft 565 kts 60°
2026-04-26 08:55 66.08061 -82.37363 33731 ft 564 kts 59°
2026-04-26 08:56 66.11622 -82.20287 33709 ft 566 kts 60°
2026-04-26 08:56 66.15196 -82.03005 33722 ft 566 kts 60°
2026-04-26 08:57 66.18735 -81.85746 33734 ft 565 kts 60°
2026-04-26 08:57 66.22258 -81.68432 33724 ft 566 kts 60°
2026-04-26 08:58 66.25763 -81.51058 33711 ft 565 kts 60°
2026-04-26 08:58 66.29264 -81.33561 33713 ft 566 kts 61°
2026-04-26 08:59 66.32730 -81.16092 33709 ft 568 kts 61°
2026-04-26 08:59 66.36189 -80.98507 33711 ft 567 kts 61°
2026-04-26 09:00 66.39632 -80.80858 33715 ft 567 kts 60°
2026-04-26 09:00 66.43040 -80.63231 33718 ft 568 kts 60°
2026-04-26 09:01 66.46438 -80.45514 33715 ft 569 kts 60°
2026-04-26 09:01 66.49818 -80.27727 33709 ft 568 kts 61°
2026-04-26 09:02 66.53188 -80.09849 33706 ft 569 kts 61°
2026-04-26 09:02 66.56531 -79.91944 33712 ft 569 kts 61°
2026-04-26 09:03 66.59853 -79.74011 33714 ft 569 kts 60°
2026-04-26 09:03 66.63157 -79.56001 33719 ft 568 kts 60°
2026-04-26 09:04 66.66452 -79.37887 33724 ft 570 kts 60°
2026-04-26 09:04 66.69726 -79.19727 33710 ft 569 kts 62°
2026-04-26 09:05 66.72961 -79.01611 33709 ft 570 kts 61°
2026-04-26 09:05 66.76189 -78.83380 33711 ft 572 kts 61°
2026-04-26 09:06 66.79388 -78.65134 33710 ft 568 kts 60°
2026-04-26 09:06 66.82587 -78.46729 33715 ft 573 kts 60°
2026-04-26 09:07 66.85746 -78.28376 33704 ft 569 kts 62°
2026-04-26 09:07 66.88887 -78.09966 33698 ft 571 kts 61°
2026-04-26 09:08 66.91998 -77.91545 33684 ft 567 kts 61°
2026-04-26 09:08 66.95087 -77.73097 33685 ft 570 kts 61°
2026-04-26 09:09 66.98149 -77.54627 33687 ft 567 kts 61°
2026-04-26 09:09 67.01193 -77.36098 33680 ft 568 kts 61°
2026-04-26 09:10 67.04198 -77.17615 33669 ft 566 kts 61°
2026-04-26 09:10 67.07213 -76.98910 33672 ft 568 kts 61°
2026-04-26 09:11 67.10192 -76.80231 33681 ft 568 kts 61°
2026-04-26 09:11 67.13158 -76.61465 33682 ft 569 kts 62°
2026-04-26 09:12 67.16095 -76.42687 33678 ft 570 kts 61°
2026-04-26 09:12 67.18990 -76.23983 33666 ft 566 kts 62°
2026-04-26 09:13 67.21882 -76.05128 33663 ft 568 kts 62°
2026-04-26 09:13 67.24773 -75.86083 33658 ft 572 kts 62°
2026-04-26 09:14 67.27618 -75.67133 33659 ft 569 kts 62°
2026-04-26 09:14 67.30438 -75.48172 33655 ft 569 kts 62°
2026-04-26 09:15 67.33227 -75.29217 33644 ft 565 kts 62°
2026-04-26 09:15 67.35999 -75.10198 33639 ft 569 kts 63°
2026-04-26 09:16 67.38767 -74.90987 33642 ft 567 kts 62°
2026-04-26 09:16 67.41490 -74.71903 33639 ft 570 kts 62°
2026-04-26 09:17 67.44203 -74.52666 33636 ft 568 kts 62°
2026-04-26 09:17 67.46918 -74.33227 33627 ft 571 kts 63°
2026-04-26 09:18 67.49574 -74.13982 33615 ft 569 kts 63°
2026-04-26 09:18 67.52245 -73.94437 33609 ft 571 kts 63°
2026-04-26 09:19 67.54864 -73.75041 33615 ft 573 kts 63°
2026-04-26 09:19 67.57474 -73.55499 33608 ft 568 kts 62°
2026-04-26 09:20 67.60046 -73.36037 33614 ft 570 kts 62°
2026-04-26 09:20 67.62601 -73.16472 33605 ft 571 kts 64°
2026-04-26 09:21 67.65125 -72.96922 33604 ft 568 kts 63°
2026-04-26 09:21 67.67633 -72.77271 33605 ft 569 kts 63°
2026-04-26 09:22 67.70108 -72.57658 33598 ft 569 kts 63°
2026-04-26 09:22 67.72570 -72.37901 33577 ft 565 kts 62°
2026-04-26 09:23 67.74998 -72.18234 33537 ft 571 kts 64°
2026-04-26 09:23 67.77416 -71.98359 33533 ft 572 kts 63°
2026-04-26 09:24 67.79800 -71.78539 33520 ft 567 kts 63°
2026-04-26 09:24 67.82154 -71.58733 33507 ft 569 kts 63°
2026-04-26 09:25 67.84476 -71.38954 33483 ft 567 kts 64°
2026-04-26 09:25 67.86806 -71.18893 33473 ft 570 kts 64°
2026-04-26 09:26 67.89095 -70.98885 33469 ft 568 kts 64°
2026-04-26 09:26 67.91356 -70.78908 33471 ft 574 kts 64°
2026-04-26 09:27 67.93608 -70.58729 33442 ft 571 kts 64°
2026-04-26 09:27 67.95818 -70.38641 33459 ft 562 kts 64°
2026-04-26 09:28 67.98008 -70.18562 33446 ft 575 kts 65°
2026-04-26 09:28 68.00310 -69.98422 33475 ft 559 kts 59°
2026-04-26 09:29 68.03120 -69.79122 33454 ft 559 kts 58°
2026-04-26 09:29 68.05915 -69.59971 33436 ft 555 kts 58°
2026-04-26 09:30 68.08704 -69.40717 33409 ft 554 kts 57°
2026-04-26 09:30 68.11446 -69.21606 33387 ft 553 kts 58°
2026-04-26 09:31 68.14159 -69.02509 33361 ft 551 kts 59°
2026-04-26 09:31 68.16852 -68.83360 33332 ft 549 kts 58°
2026-04-26 09:32 68.19509 -68.64256 33333 ft 546 kts 58°
2026-04-26 09:32 68.22128 -68.45223 33337 ft 539 kts 59°
2026-04-26 09:33 68.24712 -68.26289 33340 ft 545 kts 60°
2026-04-26 09:33 68.27287 -68.07185 33398 ft 540 kts 60°
2026-04-26 09:34 68.29842 -67.88049 33431 ft 546 kts 60°
2026-04-26 09:34 68.32349 -67.69017 33408 ft 537 kts 60°
2026-04-26 09:35 68.34837 -67.49971 33406 ft 542 kts 60°
2026-04-26 09:35 68.37302 -67.30865 33489 ft 537 kts 61°
2026-04-26 09:36 68.39725 -67.11890 33553 ft 538 kts 62°
2026-04-26 09:36 68.42136 -66.92784 33536 ft 533 kts 61°
2026-04-26 09:37 68.44512 -66.73770 33561 ft 535 kts 62°
2026-04-26 09:37 68.46847 -66.54835 33569 ft 529 kts 62°
2026-04-26 09:38 68.49165 -66.35870 33563 ft 531 kts 62°
2026-04-26 09:38 68.51444 -66.16989 33560 ft 529 kts 63°
2026-04-26 09:39 68.53720 -65.97920 33561 ft 528 kts 64°
2026-04-26 09:39 68.55959 -65.78942 33551 ft 527 kts 63°
2026-04-26 09:40 68.58164 -65.60025 33548 ft 524 kts 64°
2026-04-26 09:40 68.60354 -65.41039 33548 ft 527 kts 63°
2026-04-26 09:41 68.62524 -65.21991 33534 ft 527 kts 65°
2026-04-26 09:41 68.64683 -65.02801 33524 ft 524 kts 65°
2026-04-26 09:42 68.66790 -64.83855 33523 ft 522 kts 65°
2026-04-26 09:42 68.68882 -64.64829 33520 ft 525 kts 65°
2026-04-26 09:43 68.70966 -64.45633 33515 ft 522 kts 65°
2026-04-26 09:43 68.73015 -64.26520 33503 ft 524 kts 66°
2026-04-26 09:44 68.75034 -64.07452 33512 ft 520 kts 66°
2026-04-26 09:44 68.77032 -63.88350 33504 ft 521 kts 66°
2026-04-26 09:45 68.79005 -63.69247 33492 ft 519 kts 66°
2026-04-26 09:45 68.80981 -63.49881 33482 ft 521 kts 67°
2026-04-26 09:46 68.82910 -63.30700 33475 ft 520 kts 68°
2026-04-26 09:46 68.84815 -63.11538 33467 ft 520 kts 68°
2026-04-26 09:47 68.86696 -62.92349 33455 ft 519 kts 68°
2026-04-26 09:47 68.88560 -62.73086 33459 ft 521 kts 68°
2026-04-26 09:48 68.90405 -62.53765 33457 ft 520 kts 68°
2026-04-26 09:48 68.92232 -62.34370 33437 ft 518 kts 69°
2026-04-26 09:49 68.94028 -62.15036 33418 ft 519 kts 69°
2026-04-26 09:49 68.95798 -61.95717 33409 ft 519 kts 69°
2026-04-26 09:50 68.97956 -61.76831 33406 ft 513 kts 63°
2026-04-26 09:50 69.00366 -61.58207 33401 ft 513 kts 64°
2026-04-26 09:51 69.02727 -61.39508 33396 ft 511 kts 64°
2026-04-26 09:51 69.05031 -61.20904 33391 ft 513 kts 65°
2026-04-26 09:52 69.07326 -61.02075 33389 ft 511 kts 65°
2026-04-26 09:52 69.10693 -60.73981 33392 ft 512 kts 65°
2026-04-26 09:53 69.12929 -60.55032 33386 ft 512 kts 66°
2026-04-26 09:53 69.15125 -60.36196 33384 ft 511 kts 66°
2026-04-26 09:54 69.17303 -60.17298 33376 ft 510 kts 67°
2026-04-26 09:54 69.19452 -59.98432 33367 ft 511 kts 67°
2026-04-26 09:55 69.21593 -59.79416 33366 ft 511 kts 67°
2026-04-26 09:55 69.23701 -59.60458 33360 ft 510 kts 68°
2026-04-26 09:56 69.25797 -59.41386 33353 ft 509 kts 68°
2026-04-26 09:56 69.27871 -59.22290 33338 ft 509 kts 69°
2026-04-26 09:57 69.29919 -59.03210 33331 ft 510 kts 69°
2026-04-26 09:57 69.31933 -58.84204 33324 ft 508 kts 69°
2026-04-26 09:58 69.33940 -58.65033 33318 ft 509 kts 69°
2026-04-26 09:58 69.35928 -58.45809 33309 ft 509 kts 69°
2026-04-26 09:59 69.37893 -58.26568 33301 ft 510 kts 70°
2026-04-26 09:59 69.39832 -58.07325 33295 ft 508 kts 70°
2026-04-26 10:00 69.41743 -57.88124 33283 ft 508 kts 70°
2026-04-26 10:00 69.43638 -57.68847 33279 ft 509 kts 70°
2026-04-26 10:01 69.45525 -57.49374 33271 ft 508 kts 71°
2026-04-26 10:01 69.47372 -57.30080 33265 ft 508 kts 72°
2026-04-26 10:02 69.49196 -57.10762 33256 ft 508 kts 72°
2026-04-26 10:02 69.51008 -56.91307 33248 ft 508 kts 72°
2026-04-26 10:03 69.52789 -56.71921 33243 ft 508 kts 72°
2026-04-26 10:03 69.54549 -56.52500 33231 ft 507 kts 72°
2026-04-26 10:04 69.56297 -56.32930 33218 ft 507 kts 73°
2026-04-26 10:04 69.58020 -56.13381 33209 ft 507 kts 73°
2026-04-26 10:05 69.59712 -55.93901 33200 ft 507 kts 73°
2026-04-26 10:05 69.61391 -55.74279 33194 ft 509 kts 73°
2026-04-26 10:06 69.63052 -55.54587 33186 ft 508 kts 73°
2026-04-26 10:06 69.64674 -55.35063 33174 ft 506 kts 74°
2026-04-26 10:07 69.66282 -55.15422 33159 ft 507 kts 75°
2026-04-26 10:07 69.67872 -54.95701 33152 ft 507 kts 75°
2026-04-26 10:08 69.69428 -54.76084 33118 ft 507 kts 75°
2026-04-26 10:08 69.70972 -54.56327 33088 ft 507 kts 75°
2026-04-26 10:09 69.72494 -54.36543 33032 ft 507 kts 75°
2026-04-26 10:09 69.73998 -54.16663 32894 ft 505 kts 76°
2026-04-26 10:10 69.75457 -53.97062 32865 ft 505 kts 76°
2026-04-26 10:10 69.76907 -53.77266 32857 ft 505 kts 77°
2026-04-26 10:11 69.78336 -53.57424 32835 ft 505 kts 77°
2026-04-26 10:11 69.79739 -53.37602 32810 ft 506 kts 77°
2026-04-26 10:12 69.81129 -53.17626 32771 ft 506 kts 78°
2026-04-26 10:12 69.82484 -52.97809 32766 ft 505 kts 78°
2026-04-26 10:13 69.83815 -52.77973 32819 ft 504 kts 78°
2026-04-26 10:13 69.85129 -52.58052 32948 ft 504 kts 78°
2026-04-26 10:14 69.86419 -52.38133 33052 ft 506 kts 78°
2026-04-26 10:14 69.87696 -52.18019 32967 ft 506 kts 79°
2026-04-26 10:15 69.88936 -51.98129 33043 ft 506 kts 79°
2026-04-26 10:15 69.90162 -51.78077 33079 ft 505 kts 79°
2026-04-26 10:16 69.91364 -51.58011 33064 ft 506 kts 79°
2026-04-26 10:16 69.92551 -51.37806 33031 ft 506 kts 79°
2026-04-26 10:17 69.93706 -51.17737 33070 ft 506 kts 81°
2026-04-26 10:17 69.94836 -50.97668 33030 ft 506 kts 81°
2026-04-26 10:18 69.95950 -50.77486 33071 ft 505 kts 81°
2026-04-26 10:18 69.97038 -50.57321 33114 ft 506 kts 81°
2026-04-26 10:19 69.98106 -50.37054 33105 ft 505 kts 81°
2026-04-26 10:19 69.99144 -50.16949 33096 ft 505 kts 82°
2026-04-26 10:20 70.00011 -49.96705 33009 ft 505 kts 85°
2026-04-26 10:20 70.00612 -49.76202 32911 ft 507 kts 86°
2026-04-26 10:21 70.01165 -49.55779 32840 ft 505 kts 86°
2026-04-26 10:21 70.01688 -49.35326 32795 ft 505 kts 86°
2026-04-26 10:22 70.02179 -49.14974 32748 ft 505 kts 87°
2026-04-26 10:22 70.02644 -48.94622 32695 ft 504 kts 88°
2026-04-26 10:23 70.03087 -48.74186 32650 ft 505 kts 88°
2026-04-26 10:23 70.03504 -48.53757 32613 ft 506 kts 88°
2026-04-26 10:24 70.03899 -48.33317 32578 ft 505 kts 89°
2026-04-26 10:24 70.04270 -48.12832 32548 ft 504 kts 89°
2026-04-26 10:25 70.04616 -47.92443 32535 ft 504 kts 89°
2026-04-26 10:25 70.04937 -47.72153 32512 ft 505 kts 89°
2026-04-26 10:26 70.05238 -47.51630 32486 ft 505 kts 90°
2026-04-26 10:26 70.05516 -47.31081 32467 ft 505 kts 91°
2026-04-26 10:27 70.05769 -47.10630 32465 ft 505 kts 91°
2026-04-26 10:27 70.05999 -46.90113 32452 ft 504 kts 91°
2026-04-26 10:28 70.06205 -46.69608 32448 ft 504 kts 91°
2026-04-26 10:28 70.06387 -46.49251 32443 ft 504 kts 91°
2026-04-26 10:29 70.06547 -46.28690 32443 ft 504 kts 92°
2026-04-26 10:29 70.06683 -46.08232 32442 ft 505 kts 92°
2026-04-26 10:30 70.06795 -45.87760 32448 ft 505 kts 92°
2026-04-26 10:30 70.06884 -45.67200 32447 ft 504 kts 92°
2026-04-26 10:31 70.06949 -45.46614 32453 ft 504 kts 92°
2026-04-26 10:31 70.06991 -45.26098 32447 ft 504 kts 94°
2026-04-26 10:32 70.07009 -45.05707 32436 ft 504 kts 94°
2026-04-26 10:32 70.07004 -44.85278 32425 ft 504 kts 94°
2026-04-26 10:33 70.06976 -44.64771 32422 ft 503 kts 94°
2026-04-26 10:33 70.06924 -44.44257 32420 ft 502 kts 94°
2026-04-26 10:34 70.06847 -44.23790 32410 ft 503 kts 95°
2026-04-26 10:34 70.06749 -44.03421 32415 ft 504 kts 95°
2026-04-26 10:35 70.06627 -43.82993 32402 ft 504 kts 95°
2026-04-26 10:35 70.06480 -43.62439 32392 ft 505 kts 95°
2026-04-26 10:36 70.06312 -43.42020 32384 ft 504 kts 95°
2026-04-26 10:36 70.06119 -43.21544 32375 ft 503 kts 96°
2026-04-26 10:37 70.05904 -43.01178 32368 ft 503 kts 97°
2026-04-26 10:37 70.05664 -42.80700 32371 ft 504 kts 97°
2026-04-26 10:38 70.05400 -42.60167 32359 ft 505 kts 97°
2026-04-26 10:38 70.05114 -42.39692 32349 ft 504 kts 97°
2026-04-26 10:39 70.04805 -42.19319 32334 ft 503 kts 98°
2026-04-26 10:39 70.04471 -41.98834 32332 ft 504 kts 98°
2026-04-26 10:40 70.04116 -41.78510 32327 ft 505 kts 98°
2026-04-26 10:40 70.03735 -41.58006 32320 ft 505 kts 98°
2026-04-26 10:41 70.03333 -41.37631 32319 ft 505 kts 98°
2026-04-26 10:41 70.02906 -41.17244 32312 ft 505 kts 99°
2026-04-26 10:42 70.02453 -40.96706 32313 ft 506 kts 100°
2026-04-26 10:42 70.01979 -40.76300 32310 ft 508 kts 100°
2026-04-26 10:43 70.01482 -40.55854 32307 ft 507 kts 100°
2026-04-26 10:43 70.00960 -40.35433 32309 ft 505 kts 100°
2026-04-26 10:44 70.00414 -40.14961 32315 ft 507 kts 101°
2026-04-26 10:44 69.99872 -39.94588 32319 ft 511 kts 98°
2026-04-26 10:45 70.00359 -39.73641 32305 ft 520 kts 90°
2026-04-26 10:45 70.01060 -39.52804 32302 ft 519 kts 90°
2026-04-26 10:46 70.01672 -39.31818 32301 ft 520 kts 92°
2026-04-26 10:46 70.02216 -39.10931 32298 ft 519 kts 92°
2026-04-26 10:47 70.02715 -38.89955 32298 ft 520 kts 92°
2026-04-26 10:47 70.03180 -38.68880 32300 ft 519 kts 93°
2026-04-26 10:48 70.03609 -38.47937 32310 ft 520 kts 93°
2026-04-26 10:48 70.04012 -38.26877 32310 ft 521 kts 94°
2026-04-26 10:49 70.04388 -38.05825 32325 ft 520 kts 94°
2026-04-26 10:49 70.04739 -37.84736 32330 ft 521 kts 94°
2026-04-26 10:50 70.05011 -37.67105 32343 ft 523 kts 94°
2026-04-26 10:50 70.05363 -37.42459 32365 ft 523 kts 94°
2026-04-26 10:51 70.05766 -37.10813 32374 ft 521 kts 95°
2026-04-26 10:52 70.06003 -36.89630 32384 ft 523 kts 95°
2026-04-26 10:52 70.06215 -36.68507 32391 ft 524 kts 95°
2026-04-26 10:53 70.06403 -36.47223 32396 ft 523 kts 95°
2026-04-26 10:53 70.06567 -36.25961 32400 ft 520 kts 96°
2026-04-26 10:54 70.06761 -35.94323 32407 ft 521 kts 96°
2026-04-26 10:54 70.06860 -35.73195 32420 ft 522 kts 96°
2026-04-26 10:55 70.06934 -35.51961 32425 ft 522 kts 96°
2026-04-26 10:55 70.06983 -35.30715 32423 ft 523 kts 97°
2026-04-26 10:56 70.07008 -35.09574 32432 ft 523 kts 97°
2026-04-26 10:56 70.07006 -34.88479 32454 ft 522 kts 97°
2026-04-26 10:57 70.06980 -34.67220 32467 ft 522 kts 97°
2026-04-26 10:57 70.06928 -34.45968 32478 ft 523 kts 97°
2026-04-26 10:58 70.06851 -34.24661 32489 ft 523 kts 98°
2026-04-26 10:58 70.06748 -34.03516 32486 ft 526 kts 98°
2026-04-26 10:59 70.06622 -33.82189 32500 ft 524 kts 98°
2026-04-26 10:59 70.06468 -33.60884 32506 ft 525 kts 98°
2026-04-26 11:00 70.06290 -33.39644 32525 ft 526 kts 98°
2026-04-26 11:00 70.06086 -33.18240 32519 ft 525 kts 99°
2026-04-26 11:01 70.05856 -32.96968 32533 ft 528 kts 99°
2026-04-26 11:01 70.05602 -32.75666 32538 ft 526 kts 99°
2026-04-26 11:02 70.05321 -32.54301 32560 ft 525 kts 99°
2026-04-26 11:02 70.05015 -32.32990 32572 ft 525 kts 100°
2026-04-26 11:03 70.04686 -32.11788 32591 ft 523 kts 100°
2026-04-26 11:03 70.04328 -31.90521 32619 ft 525 kts 100°
2026-04-26 11:04 70.03948 -31.69295 32669 ft 524 kts 100°
2026-04-26 11:04 70.03540 -31.48049 32711 ft 527 kts 100°
2026-04-26 11:05 70.03107 -31.26709 32718 ft 527 kts 101°
2026-04-26 11:05 70.02647 -31.05382 32733 ft 526 kts 101°
2026-04-26 11:06 70.02164 -30.84111 32773 ft 527 kts 101°
2026-04-26 11:06 70.01655 -30.62858 32797 ft 525 kts 101°
2026-04-26 11:07 70.01118 -30.41537 32830 ft 527 kts 101°
2026-04-26 11:07 70.00559 -30.20332 32852 ft 527 kts 101°
2026-04-26 11:08 69.99758 -29.99184 32846 ft 522 kts 107°
2026-04-26 11:08 69.98434 -29.78523 32838 ft 520 kts 108°
2026-04-26 11:09 69.97030 -29.57790 32814 ft 521 kts 108°
2026-04-26 11:09 69.95596 -29.37246 32831 ft 519 kts 108°
2026-04-26 11:10 69.94128 -29.16740 32922 ft 521 kts 109°
2026-04-26 11:10 69.92621 -28.96151 32987 ft 522 kts 109°
2026-04-26 11:11 69.91097 -28.75707 32935 ft 521 kts 109°
2026-04-26 11:11 69.89545 -28.55266 32891 ft 519 kts 109°
2026-04-26 11:12 69.87962 -28.34775 32906 ft 524 kts 110°
2026-04-26 11:12 69.86369 -28.14471 32939 ft 517 kts 110°
2026-04-26 11:13 69.84737 -27.94038 32971 ft 520 kts 110°
2026-04-26 11:13 69.83098 -27.73817 32877 ft 518 kts 110°
2026-04-26 11:14 69.81435 -27.53645 32950 ft 519 kts 110°
2026-04-26 11:14 69.79735 -27.33319 32993 ft 519 kts 111°
2026-04-26 11:15 69.78030 -27.13231 32987 ft 518 kts 111°
2026-04-26 11:15 69.76294 -26.93092 32966 ft 516 kts 111°
2026-04-26 11:16 69.74536 -26.73016 32962 ft 520 kts 111°
2026-04-26 11:16 69.72757 -26.52977 32937 ft 520 kts 111°
2026-04-26 11:17 69.70949 -26.32896 32921 ft 518 kts 112°
2026-04-26 11:17 69.69126 -26.12949 32943 ft 520 kts 111°
2026-04-26 11:18 69.67277 -25.92978 32977 ft 517 kts 111°
2026-04-26 11:18 69.65398 -25.72984 32938 ft 520 kts 111°
2026-04-26 11:19 69.63507 -25.53130 32999 ft 517 kts 111°
2026-04-26 11:19 69.61588 -25.33267 33064 ft 521 kts 112°
2026-04-26 11:20 69.59976 -25.16760 33099 ft 517 kts 112°
2026-04-26 11:20 69.57682 -24.93609 33032 ft 519 kts 112°
2026-04-26 11:21 69.55699 -24.73880 33079 ft 519 kts 112°
2026-04-26 11:21 69.53685 -24.54104 33130 ft 521 kts 112°
2026-04-26 11:22 69.51660 -24.34454 33119 ft 517 kts 113°
2026-04-26 11:22 69.49619 -24.14914 33102 ft 517 kts 113°
2026-04-26 11:23 69.48583 -24.05089 33216 ft 522 kts 113°
2026-04-26 11:23 69.47541 -23.95279 33284 ft 520 kts 113°
2026-04-26 11:23 69.45454 -23.75769 33280 ft 516 kts 113°
2026-04-26 11:24 69.43333 -23.56216 33273 ft 517 kts 113°
2026-04-26 11:24 69.41205 -23.36834 33271 ft 519 kts 113°
2026-04-26 11:25 69.39051 -23.17441 33263 ft 518 kts 114°
2026-04-26 11:25 69.36862 -22.97969 33259 ft 516 kts 114°
2026-04-26 11:26 69.34669 -22.78704 33274 ft 518 kts 114°
2026-04-26 11:26 69.32449 -22.59426 33259 ft 519 kts 114°
2026-04-26 11:27 69.30215 -22.40236 33251 ft 517 kts 114°
2026-04-26 11:27 69.27954 -22.21048 33242 ft 516 kts 115°
2026-04-26 11:28 69.25659 -22.01797 33237 ft 517 kts 115°
2026-04-26 11:28 69.23366 -21.82768 33243 ft 518 kts 115°
2026-04-26 11:29 69.21048 -21.63753 33231 ft 516 kts 115°
2026-04-26 11:29 69.18703 -21.44723 33232 ft 516 kts 115°
2026-04-26 11:30 69.16730 -21.28897 33232 ft 518 kts 115°
2026-04-26 11:30 69.13964 -21.06911 33221 ft 517 kts 115°
2026-04-26 11:31 69.11549 -20.87958 33222 ft 515 kts 115°
2026-04-26 11:31 69.09135 -20.69202 33211 ft 516 kts 115°
2026-04-26 11:32 69.06681 -20.50351 33195 ft 517 kts 115°
2026-04-26 11:32 69.04207 -20.31542 33175 ft 517 kts 116°
2026-04-26 11:33 69.01718 -20.12817 33171 ft 517 kts 116°
2026-04-26 11:33 68.99080 -19.94430 33160 ft 514 kts 119°
2026-04-26 11:34 68.96263 -19.76237 33169 ft 516 kts 119°
2026-04-26 11:34 68.93402 -19.58013 33160 ft 513 kts 119°
2026-04-26 11:35 68.90530 -19.39924 33163 ft 514 kts 118°
2026-04-26 11:35 68.87654 -19.21997 33150 ft 512 kts 120°
2026-04-26 11:36 68.84735 -19.03989 33164 ft 514 kts 120°
2026-04-26 11:36 68.81802 -18.86049 33152 ft 512 kts 120°
2026-04-26 11:37 68.78869 -18.68278 33147 ft 511 kts 120°
2026-04-26 11:37 68.75897 -18.50441 33143 ft 513 kts 119°
2026-04-26 11:38 68.72913 -18.32686 33128 ft 512 kts 120°
2026-04-26 11:38 68.69929 -18.15093 33123 ft 512 kts 120°
2026-04-26 11:39 68.66900 -17.97390 33145 ft 512 kts 120°
2026-04-26 11:39 68.63873 -17.79853 33126 ft 512 kts 120°
2026-04-26 11:40 68.60820 -17.62316 33119 ft 511 kts 120°
2026-04-26 11:40 68.57755 -17.44861 33120 ft 512 kts 120°
2026-04-26 11:42 68.45332 -16.75621 33107 ft 510 kts 121°
2026-04-26 11:43 68.42183 -16.58431 33103 ft 509 kts 120°
2026-04-26 11:43 68.39022 -16.41328 33103 ft 509 kts 120°
2026-04-26 11:44 68.35836 -16.24227 33098 ft 510 kts 121°
2026-04-26 11:44 68.32641 -16.07219 33092 ft 509 kts 121°
2026-04-26 11:45 68.29437 -15.90304 33083 ft 509 kts 121°
2026-04-26 11:45 68.26209 -15.73398 33089 ft 508 kts 121°
2026-04-26 11:46 68.22960 -15.56519 33081 ft 507 kts 121°
2026-04-26 11:46 68.19707 -15.39758 33074 ft 507 kts 121°
2026-04-26 11:47 68.16456 -15.23142 33075 ft 506 kts 122°
2026-04-26 11:47 68.13185 -15.06554 33073 ft 506 kts 122°
2026-04-26 11:48 68.09875 -14.89903 33075 ft 506 kts 122°
2026-04-26 11:48 68.06576 -14.73436 33071 ft 507 kts 122°
2026-04-26 11:49 68.03245 -14.56938 33067 ft 506 kts 122°
2026-04-26 11:49 67.99881 -14.40405 33070 ft 508 kts 121°
2026-04-26 11:50 67.96528 -14.24053 33063 ft 504 kts 123°
2026-04-26 11:50 67.93162 -14.07772 33066 ft 505 kts 123°
2026-04-26 11:51 67.89769 -13.91479 33067 ft 505 kts 122°
2026-04-26 11:51 67.86366 -13.75263 33072 ft 506 kts 122°
2026-04-26 11:52 67.82955 -13.59133 33072 ft 504 kts 122°
2026-04-26 11:52 67.79517 -13.42999 33074 ft 505 kts 122°
2026-04-26 11:53 67.76074 -13.26960 33069 ft 504 kts 123°
2026-04-26 11:54 67.70901 -13.03090 33074 ft 503 kts 123°
2026-04-26 11:54 67.67428 -12.87208 33070 ft 502 kts 123°
2026-04-26 11:55 67.63927 -12.71324 33073 ft 504 kts 123°
2026-04-26 11:55 67.60435 -12.55587 33073 ft 502 kts 123°
2026-04-26 11:56 67.56919 -12.39866 33077 ft 503 kts 123°
2026-04-26 11:56 67.53374 -12.24126 33082 ft 502 kts 124°
2026-04-26 11:57 67.49831 -12.08509 33077 ft 503 kts 124°
2026-04-26 11:57 67.46278 -11.92959 33078 ft 502 kts 123°
2026-04-26 11:58 67.42709 -11.77453 33080 ft 501 kts 124°
2026-04-26 11:58 67.39109 -11.61925 33087 ft 500 kts 123°
2026-04-26 11:59 67.35512 -11.46518 33085 ft 501 kts 123°
2026-04-26 11:59 67.31925 -11.31264 33085 ft 500 kts 124°
2026-04-26 12:00 67.28296 -11.15937 33078 ft 499 kts 124°
2026-04-26 12:00 67.24655 -11.00670 33089 ft 501 kts 124°
2026-04-26 12:01 67.21018 -10.85521 33094 ft 501 kts 124°
2026-04-26 12:01 67.17340 -10.70317 33096 ft 503 kts 124°
2026-04-26 12:02 67.13657 -10.55188 33099 ft 502 kts 124°
2026-04-26 12:02 67.09956 -10.40097 33104 ft 501 kts 124°
2026-04-26 12:03 67.06257 -10.25112 33107 ft 499 kts 125°
2026-04-26 12:03 67.02538 -10.10153 33107 ft 501 kts 125°
2026-04-26 12:04 66.98517 -9.95782 33112 ft 497 kts 131°
2026-04-26 12:04 66.94232 -9.81990 33115 ft 497 kts 131°
2026-04-26 12:05 66.89921 -9.68305 33120 ft 496 kts 131°
2026-04-26 12:05 66.85602 -9.54740 33125 ft 497 kts 131°
2026-04-26 12:06 66.81267 -9.41234 33130 ft 496 kts 131°
2026-04-26 12:06 66.76910 -9.27761 33126 ft 496 kts 132°
2026-04-26 12:07 66.72565 -9.14417 33129 ft 496 kts 132°
2026-04-26 12:07 66.68185 -9.01053 33124 ft 495 kts 132°
2026-04-26 12:08 66.63791 -8.87730 33122 ft 495 kts 132°
2026-04-26 12:08 66.59387 -8.74457 33125 ft 495 kts 132°
2026-04-26 12:09 66.54986 -8.61275 33127 ft 495 kts 132°
2026-04-26 12:09 66.50581 -8.48166 33135 ft 495 kts 132°
2026-04-26 12:10 66.46162 -8.35091 33136 ft 496 kts 132°
2026-04-26 12:10 66.41706 -8.21983 33139 ft 494 kts 133°
2026-04-26 12:11 66.37281 -8.09046 33142 ft 493 kts 133°
2026-04-26 12:11 66.32824 -7.96091 33146 ft 493 kts 133°
2026-04-26 12:12 66.28376 -7.83243 33156 ft 493 kts 133°
2026-04-26 12:12 66.23923 -7.70454 33157 ft 492 kts 133°
2026-04-26 12:13 66.19453 -7.57694 33156 ft 493 kts 133°
2026-04-26 12:13 66.14984 -7.45009 33157 ft 492 kts 133°
2026-04-26 12:14 66.10488 -7.32323 33162 ft 492 kts 134°
2026-04-26 12:14 66.05985 -7.19691 33159 ft 490 kts 134°
2026-04-26 12:15 66.01492 -7.07161 33169 ft 492 kts 134°
2026-04-26 12:15 65.96984 -6.94660 33177 ft 491 kts 134°
2026-04-26 12:16 65.92481 -6.82245 33176 ft 491 kts 134°
2026-04-26 12:16 65.87950 -6.69824 33186 ft 490 kts 133°
2026-04-26 12:17 65.83420 -6.57477 33187 ft 492 kts 133°
2026-04-26 12:17 65.78873 -6.45154 33194 ft 491 kts 133°
2026-04-26 12:18 65.74284 -6.32791 33198 ft 491 kts 134°
2026-04-26 12:18 65.69746 -6.20632 33204 ft 490 kts 134°
2026-04-26 12:19 65.65181 -6.08469 33211 ft 489 kts 134°
2026-04-26 12:19 65.60609 -5.96356 33215 ft 489 kts 134°
2026-04-26 12:20 65.56024 -5.84281 33215 ft 488 kts 134°
2026-04-26 12:20 65.51444 -5.72279 33215 ft 489 kts 134°
2026-04-26 12:21 65.46858 -5.60334 33221 ft 489 kts 134°
2026-04-26 12:21 65.42248 -5.48392 33221 ft 488 kts 134°
2026-04-26 12:22 65.37646 -5.36536 33223 ft 488 kts 134°
2026-04-26 12:22 65.33032 -5.24716 33224 ft 487 kts 135°
2026-04-26 12:23 65.28429 -5.12986 33227 ft 487 kts 135°
2026-04-26 12:23 65.23807 -5.01274 33227 ft 489 kts 135°
2026-04-26 12:24 65.19148 -4.89532 33239 ft 488 kts 135°
2026-04-26 12:24 65.14513 -4.77914 33238 ft 487 kts 135°
2026-04-26 12:25 65.07502 -4.60458 33241 ft 487 kts 135°
2026-04-26 12:25 65.02837 -4.48925 33248 ft 486 kts 135°
2026-04-26 12:26 64.98174 -4.37454 33250 ft 487 kts 134°
2026-04-26 12:26 64.93507 -4.26039 33246 ft 487 kts 135°
2026-04-26 12:27 64.88823 -4.14641 33251 ft 488 kts 135°
2026-04-26 12:27 64.84122 -4.03263 33255 ft 488 kts 135°
2026-04-26 12:28 64.79389 -3.91870 33258 ft 487 kts 135°
2026-04-26 12:28 64.74689 -3.80616 33256 ft 487 kts 135°
2026-04-26 12:29 64.69959 -3.69350 33258 ft 488 kts 135°
2026-04-26 12:30 64.62839 -3.52504 33264 ft 487 kts 135°
2026-04-26 12:30 64.58118 -3.41404 33261 ft 487 kts 135°
2026-04-26 12:31 64.50977 -3.24729 33257 ft 486 kts 136°
2026-04-26 12:31 64.46223 -3.13699 33266 ft 485 kts 136°
2026-04-26 12:32 64.41466 -3.02721 33270 ft 485 kts 136°
2026-04-26 12:33 64.34320 -2.86334 33283 ft 484 kts 136°
2026-04-26 12:33 64.29555 -2.75479 33291 ft 485 kts 136°
2026-04-26 12:34 64.24781 -2.64656 33294 ft 485 kts 136°
2026-04-26 12:34 64.19991 -2.53854 33296 ft 485 kts 136°
2026-04-26 12:35 64.15197 -2.43098 33295 ft 484 kts 135°
2026-04-26 12:35 64.10390 -2.32368 33296 ft 486 kts 136°
2026-04-26 12:36 64.05568 -2.21659 33297 ft 483 kts 136°
2026-04-26 12:36 64.00774 -2.11065 33297 ft 484 kts 136°
2026-04-26 12:37 63.95973 -2.00512 33299 ft 483 kts 136°
2026-04-26 12:37 63.91144 -1.89949 33300 ft 484 kts 136°
2026-04-26 12:38 63.86272 -1.79347 33299 ft 484 kts 136°
2026-04-26 12:38 63.81432 -1.68864 33300 ft 484 kts 136°
2026-04-26 12:39 63.76606 -1.58465 33303 ft 484 kts 136°
2026-04-26 12:39 63.71728 -1.48008 33300 ft 484 kts 136°
2026-04-26 12:40 63.66872 -1.37650 33298 ft 485 kts 136°
2026-04-26 12:40 63.61963 -1.27229 33298 ft 485 kts 137°
2026-04-26 12:41 63.57068 -1.16888 33296 ft 485 kts 137°
2026-04-26 12:41 63.52188 -1.06631 33298 ft 486 kts 137°
2026-04-26 12:42 63.47267 -0.96340 33297 ft 486 kts 137°
2026-04-26 12:42 63.42333 -0.86072 33296 ft 485 kts 137°
2026-04-26 12:43 63.37416 -0.75890 33301 ft 486 kts 137°
2026-04-26 12:43 63.32491 -0.65740 33306 ft 486 kts 137°
2026-04-26 12:44 63.27536 -0.55578 33312 ft 486 kts 137°
2026-04-26 12:44 63.22574 -0.45453 33320 ft 487 kts 137°
2026-04-26 12:45 63.17617 -0.35385 33317 ft 486 kts 137°
2026-04-26 12:45 63.12647 -0.25340 33315 ft 486 kts 138°
2026-04-26 12:46 63.07671 -0.15333 33315 ft 486 kts 138°
2026-04-26 12:46 63.02678 -0.05415 33315 ft 485 kts 141°
2026-04-26 12:47 62.96991 0.02286 33320 ft 484 kts 154°
2026-04-26 12:47 62.90970 0.08761 33319 ft 483 kts 155°
2026-04-26 12:48 62.84946 0.15030 33320 ft 484 kts 156°
2026-04-26 12:48 62.78861 0.21242 33320 ft 483 kts 156°
2026-04-26 12:49 62.72805 0.27350 33322 ft 483 kts 156°
2026-04-26 12:49 62.66703 0.33452 33321 ft 484 kts 156°
2026-04-26 12:50 62.60649 0.39465 33321 ft 483 kts 156°
2026-04-26 12:50 62.54522 0.45517 33319 ft 484 kts 156°
2026-04-26 12:51 62.48439 0.51494 33319 ft 483 kts 156°
2026-04-26 12:51 62.42337 0.57461 33319 ft 483 kts 156°
2026-04-26 12:52 62.36262 0.63374 33319 ft 483 kts 156°
2026-04-26 12:52 62.30151 0.69296 33317 ft 483 kts 157°
2026-04-26 12:53 62.24060 0.75170 33317 ft 483 kts 157°
2026-04-26 12:53 62.17928 0.81058 33317 ft 483 kts 158°
2026-04-26 12:54 62.11837 0.86881 33318 ft 482 kts 158°
2026-04-26 12:54 62.05753 0.92672 33318 ft 482 kts 157°
2026-04-26 12:55 61.99694 0.98412 33318 ft 481 kts 157°
2026-04-26 12:55 61.93591 1.04170 33318 ft 482 kts 158°
2026-04-26 12:56 61.87482 1.09908 33318 ft 483 kts 158°
2026-04-26 12:56 61.81341 1.15651 33318 ft 483 kts 158°
2026-04-26 12:57 61.75218 1.21351 33320 ft 483 kts 158°
2026-04-26 12:57 61.69080 1.27042 33323 ft 484 kts 158°
2026-04-26 12:58 61.59893 1.35512 33326 ft 484 kts 158°
2026-04-26 12:58 61.53748 1.41147 33330 ft 485 kts 158°
2026-04-26 12:59 61.47596 1.46764 33331 ft 485 kts 158°
2026-04-26 12:59 61.41433 1.52367 33334 ft 485 kts 158°
2026-04-26 13:00 61.35258 1.57956 33338 ft 486 kts 158°
2026-04-26 13:00 61.29086 1.63519 33345 ft 485 kts 158°
2026-04-26 13:01 61.22926 1.69047 33348 ft 485 kts 159°
2026-04-26 13:01 61.16722 1.74590 33348 ft 486 kts 159°
2026-04-26 13:02 61.10538 1.80092 33347 ft 487 kts 159°
2026-04-26 13:02 61.04339 1.85585 33347 ft 486 kts 159°
2026-04-26 13:03 60.98190 1.91010 33342 ft 486 kts 160°
2026-04-26 13:03 60.91985 1.96460 33341 ft 487 kts 160°
2026-04-26 13:04 60.85771 2.01895 33338 ft 487 kts 160°
2026-04-26 13:04 60.79567 2.07299 33338 ft 487 kts 160°
2026-04-26 13:05 60.73354 2.12688 33338 ft 486 kts 160°
2026-04-26 13:05 60.67162 2.18036 33339 ft 487 kts 160°
2026-04-26 13:06 60.60925 2.23400 33339 ft 487 kts 160°
2026-04-26 13:06 60.54741 2.28696 33339 ft 487 kts 160°
2026-04-26 13:07 60.48491 2.34027 33340 ft 487 kts 160°
2026-04-26 13:07 60.42303 2.39283 33340 ft 488 kts 160°
2026-04-26 13:08 60.36073 2.44552 33336 ft 488 kts 160°
2026-04-26 13:08 60.29814 2.49824 33332 ft 488 kts 160°
2026-04-26 13:09 60.23595 2.55041 33332 ft 488 kts 160°
2026-04-26 13:09 60.17363 2.60248 33330 ft 488 kts 160°
2026-04-26 13:10 60.11089 2.65467 33325 ft 488 kts 161°
2026-04-26 13:10 60.04844 2.70641 33317 ft 488 kts 161°
2026-04-26 13:11 59.98609 2.75785 33317 ft 488 kts 161°
2026-04-26 13:11 59.92334 2.80942 33317 ft 487 kts 161°
2026-04-26 13:12 59.86098 2.86045 33325 ft 487 kts 161°
2026-04-26 13:12 59.79875 2.91118 33331 ft 487 kts 161°
2026-04-26 13:13 59.73627 2.96190 33334 ft 488 kts 161°
2026-04-26 13:13 59.67350 3.01264 33339 ft 488 kts 161°
2026-04-26 13:14 59.61071 3.06320 33334 ft 489 kts 161°
2026-04-26 13:14 59.54795 3.11353 33336 ft 490 kts 161°
2026-04-26 13:15 59.48523 3.16363 33341 ft 488 kts 161°
2026-04-26 13:15 59.42262 3.21343 33339 ft 488 kts 161°
2026-04-26 13:16 59.35994 3.26310 33340 ft 488 kts 161°
2026-04-26 13:16 59.29723 3.31259 33340 ft 488 kts 161°
2026-04-26 13:17 59.20276 3.38677 33341 ft 489 kts 161°
2026-04-26 13:18 59.10839 3.46044 33339 ft 488 kts 161°
2026-04-26 13:19 59.01407 3.53363 33344 ft 488 kts 161°
2026-04-26 13:19 58.95094 3.58236 33345 ft 489 kts 161°
2026-04-26 13:20 58.88833 3.63052 33340 ft 489 kts 161°
2026-04-26 13:20 58.82488 3.67913 33338 ft 489 kts 161°
2026-04-26 13:21 58.76212 3.72702 33331 ft 490 kts 162°
2026-04-26 13:21 58.69895 3.77504 33337 ft 489 kts 161°
2026-04-26 13:22 58.63611 3.82262 33341 ft 488 kts 161°
2026-04-26 13:22 58.57294 3.87026 33330 ft 488 kts 161°
2026-04-26 13:23 58.50980 3.91770 33336 ft 489 kts 161°
2026-04-26 13:23 58.44696 3.96473 33330 ft 489 kts 161°
2026-04-26 13:24 58.38347 4.01206 33333 ft 490 kts 161°
2026-04-26 13:24 58.32022 4.05903 33330 ft 490 kts 161°
2026-04-26 13:25 58.25704 4.10577 33332 ft 489 kts 162°
2026-04-26 13:25 58.19397 4.15225 33332 ft 489 kts 162°
2026-04-26 13:26 58.13066 4.19872 33335 ft 490 kts 161°
2026-04-26 13:26 58.06738 4.24500 33335 ft 489 kts 161°
2026-04-26 13:27 58.00407 4.29113 33334 ft 490 kts 161°
2026-04-26 13:27 57.94067 4.33715 33325 ft 490 kts 161°
2026-04-26 13:28 57.87727 4.38299 33324 ft 489 kts 162°
2026-04-26 13:28 57.81390 4.42863 33330 ft 490 kts 161°
2026-04-26 13:29 57.75045 4.47417 33340 ft 490 kts 161°
2026-04-26 13:29 57.68715 4.51942 33332 ft 490 kts 161°
2026-04-26 13:30 57.62328 4.56490 33335 ft 491 kts 161°
2026-04-26 13:30 57.56007 4.60976 33336 ft 491 kts 161°
2026-04-26 13:31 57.49619 4.65491 33335 ft 490 kts 162°
2026-04-26 13:31 57.43265 4.69967 33331 ft 490 kts 162°
2026-04-26 13:32 57.36948 4.74399 33333 ft 490 kts 162°
2026-04-26 13:32 57.30552 4.78870 33340 ft 491 kts 162°
2026-04-26 13:33 57.24184 4.83305 33339 ft 491 kts 162°
2026-04-26 13:33 57.17845 4.87704 33338 ft 491 kts 162°
2026-04-26 13:34 57.11456 4.92121 33338 ft 491 kts 162°
2026-04-26 13:34 57.05069 4.96520 33338 ft 492 kts 162°
2026-04-26 13:35 56.98669 5.00462 33343 ft 488 kts 168°
2026-04-26 13:35 56.92090 5.03512 33342 ft 488 kts 169°
2026-04-26 13:36 56.85532 5.06494 33338 ft 489 kts 169°
2026-04-26 13:36 56.78960 5.09458 33338 ft 488 kts 169°
2026-04-26 13:37 56.72380 5.12408 33337 ft 489 kts 169°
2026-04-26 13:37 56.65797 5.15345 33336 ft 487 kts 169°
2026-04-26 13:38 56.59224 5.18264 33344 ft 488 kts 169°
2026-04-26 13:38 56.52685 5.21157 33341 ft 487 kts 169°
2026-04-26 13:39 56.46131 5.24046 33345 ft 489 kts 169°
2026-04-26 13:39 56.39508 5.26954 33349 ft 488 kts 169°
2026-04-26 13:40 56.32962 5.29818 33349 ft 489 kts 169°
2026-04-26 13:40 56.26358 5.32698 33351 ft 487 kts 169°
2026-04-26 13:41 56.19773 5.35558 33352 ft 488 kts 169°
2026-04-26 13:41 56.13205 5.38401 33356 ft 487 kts 169°
2026-04-26 13:42 56.06679 5.41217 33360 ft 487 kts 169°
2026-04-26 13:42 56.00073 5.44057 33359 ft 488 kts 169°
2026-04-26 13:43 55.93514 5.46866 33361 ft 488 kts 169°
2026-04-26 13:43 55.86898 5.49690 33353 ft 488 kts 169°
2026-04-26 13:44 55.80329 5.52484 33351 ft 489 kts 169°
2026-04-26 13:44 55.73753 5.55272 33352 ft 488 kts 169°
2026-04-26 13:45 55.67148 5.58062 33352 ft 488 kts 169°
2026-04-26 13:45 55.60565 5.60834 33351 ft 488 kts 169°
2026-04-26 13:46 55.53979 5.63596 33353 ft 488 kts 169°
2026-04-26 13:46 55.47404 5.66345 33345 ft 488 kts 170°
2026-04-26 13:47 55.40806 5.69095 33345 ft 488 kts 170°
2026-04-26 13:47 55.34218 5.71830 33341 ft 488 kts 170°
2026-04-26 13:48 55.27616 5.74562 33343 ft 487 kts 170°
2026-04-26 13:48 55.21072 5.77261 33343 ft 488 kts 170°
2026-04-26 13:49 55.14457 5.79979 33345 ft 488 kts 170°
2026-04-26 13:49 55.07910 5.82661 33342 ft 488 kts 170°
2026-04-26 13:50 55.01295 5.85361 33350 ft 488 kts 170°
2026-04-26 13:50 54.94729 5.88160 33357 ft 488 kts 169°
2026-04-26 13:51 54.88155 5.91049 33357 ft 488 kts 169°
2026-04-26 13:51 54.81558 5.93930 33357 ft 489 kts 169°
2026-04-26 13:52 54.74999 5.96781 33357 ft 489 kts 169°
2026-04-26 13:52 54.68432 5.99623 33358 ft 489 kts 169°
2026-04-26 13:53 54.61848 6.02462 33358 ft 489 kts 169°
2026-04-26 13:53 54.55260 6.05293 33357 ft 489 kts 169°
2026-04-26 13:54 54.48670 6.08115 33360 ft 489 kts 169°
2026-04-26 13:54 54.42080 6.10927 33361 ft 489 kts 169°
2026-04-26 13:55 54.33263 6.14675 33360 ft 489 kts 169°
2026-04-26 13:56 54.22311 6.19307 33361 ft 489 kts 169°
2026-04-26 13:56 54.15731 6.22077 33363 ft 489 kts 169°
2026-04-26 13:57 54.09162 6.24834 33363 ft 489 kts 169°
2026-04-26 13:57 54.02547 6.27602 33363 ft 489 kts 169°
2026-04-26 13:58 53.95962 6.30348 33364 ft 489 kts 169°
2026-04-26 13:58 53.89382 6.33082 33362 ft 489 kts 169°
2026-04-26 13:59 53.82786 6.35815 33353 ft 489 kts 169°
2026-04-26 13:59 53.76212 6.38530 33347 ft 488 kts 169°
2026-04-26 14:00 53.63016 6.43952 33338 ft 489 kts 169°
2026-04-26 14:01 53.56442 6.46641 33335 ft 489 kts 169°
2026-04-26 14:01 53.49810 6.49344 33332 ft 490 kts 169°
2026-04-26 14:02 53.43231 6.52018 33330 ft 489 kts 169°
2026-04-26 14:02 53.36637 6.54689 33330 ft 488 kts 169°
2026-04-26 14:03 53.30038 6.57353 33332 ft 489 kts 169°
2026-04-26 14:03 53.23428 6.60014 33330 ft 489 kts 169°
2026-04-26 14:04 53.16852 6.62652 33334 ft 489 kts 169°
2026-04-26 14:04 53.10225 6.65302 33334 ft 489 kts 170°
2026-04-26 14:05 53.03664 6.67918 33331 ft 488 kts 170°
2026-04-26 14:05 52.97057 6.70544 33326 ft 487 kts 170°
2026-04-26 14:06 52.90499 6.73142 33327 ft 487 kts 169°
2026-04-26 14:06 52.83896 6.75750 33333 ft 487 kts 169°
2026-04-26 14:07 52.77328 6.78336 33321 ft 487 kts 169°
2026-04-26 14:07 52.70725 6.80928 33312 ft 488 kts 169°
2026-04-26 14:08 52.64156 6.83498 33310 ft 487 kts 169°
2026-04-26 14:08 52.57581 6.86062 33308 ft 488 kts 169°
2026-04-26 14:09 52.50961 6.88637 33307 ft 488 kts 169°
2026-04-26 14:09 52.44356 6.91197 33303 ft 488 kts 169°
2026-04-26 14:10 52.37793 6.93733 33303 ft 488 kts 169°
2026-04-26 14:10 52.31173 6.96284 33302 ft 488 kts 169°
2026-04-26 14:11 52.21311 7.00069 33300 ft 488 kts 169°
2026-04-26 14:11 52.14688 7.02602 33302 ft 487 kts 169°
2026-04-26 14:12 52.08125 7.05103 33296 ft 489 kts 169°
2026-04-26 14:12 52.01512 7.07616 33299 ft 489 kts 169°
2026-04-26 14:13 51.91611 7.11366 33297 ft 488 kts 169°
2026-04-26 14:14 51.85132 7.13809 33285 ft 487 kts 169°
2026-04-26 14:14 51.78511 7.16299 33281 ft 487 kts 169°
2026-04-26 14:15 51.71951 7.18758 33279 ft 487 kts 169°
2026-04-26 14:15 51.65308 7.21242 33283 ft 488 kts 169°
2026-04-26 14:16 51.58730 7.23693 33286 ft 488 kts 169°
2026-04-26 14:16 51.52121 7.26149 33282 ft 487 kts 169°
2026-04-26 14:17 51.45505 7.28600 33276 ft 487 kts 168°
2026-04-26 14:17 51.38960 7.31018 33273 ft 486 kts 168°
2026-04-26 14:18 51.32332 7.33459 33271 ft 486 kts 168°
2026-04-26 14:18 51.25761 7.35872 33267 ft 487 kts 168°
2026-04-26 14:19 51.19173 7.38284 33264 ft 487 kts 168°
2026-04-26 14:19 51.12564 7.40696 33262 ft 487 kts 168°
2026-04-26 14:20 51.05984 7.43092 33262 ft 487 kts 168°
2026-04-26 14:20 50.99427 7.45472 33254 ft 486 kts 168°
2026-04-26 14:21 50.92837 7.47856 33257 ft 486 kts 168°
2026-04-26 14:21 50.86281 7.50222 33251 ft 485 kts 168°
2026-04-26 14:22 50.79669 7.52601 33248 ft 486 kts 168°
2026-04-26 14:22 50.73175 7.55269 33244 ft 486 kts 160°
2026-04-26 14:23 50.67217 7.60407 33250 ft 489 kts 146°
2026-04-26 14:23 50.61584 7.66300 33241 ft 488 kts 147°
2026-04-26 14:24 50.55913 7.72193 33249 ft 487 kts 147°
2026-04-26 14:24 50.50265 7.78027 33252 ft 488 kts 147°
2026-04-26 14:25 50.44637 7.83813 33249 ft 488 kts 147°
2026-04-26 14:25 50.38967 7.89619 33249 ft 487 kts 147°
2026-04-26 14:26 50.33311 7.95392 33243 ft 486 kts 147°
2026-04-26 14:26 50.27646 8.01156 33246 ft 485 kts 148°
2026-04-26 14:27 50.21988 8.06895 33240 ft 485 kts 148°
2026-04-26 14:27 50.16362 8.12584 33232 ft 484 kts 148°
2026-04-26 14:28 50.10301 8.17024 33237 ft 483 kts 162°
2026-04-26 14:28 50.03970 8.20310 33239 ft 482 kts 163°
2026-04-26 14:29 49.97580 8.23585 33235 ft 482 kts 163°
2026-04-26 14:29 49.91231 8.26825 33232 ft 481 kts 163°
2026-04-26 14:30 49.84881 8.30054 33226 ft 481 kts 163°
2026-04-26 14:30 49.78547 8.33265 33222 ft 480 kts 163°
2026-04-26 14:31 49.72192 8.36476 33223 ft 481 kts 163°
2026-04-26 14:31 49.65866 8.39664 33224 ft 481 kts 163°
2026-04-26 14:32 49.59496 8.42866 33223 ft 481 kts 163°
2026-04-26 14:32 49.53145 8.46049 33225 ft 481 kts 163°
2026-04-26 14:33 49.46794 8.49223 33224 ft 479 kts 163°
2026-04-26 14:33 49.40515 8.52352 33225 ft 478 kts 163°
2026-04-26 14:34 49.34187 8.55498 33227 ft 478 kts 163°
2026-04-26 14:34 49.27906 8.58611 33227 ft 478 kts 163°
2026-04-26 14:35 49.21653 8.61703 33223 ft 477 kts 163°
2026-04-26 14:35 49.15334 8.64818 33221 ft 477 kts 163°
2026-04-26 14:36 49.09039 8.67914 33216 ft 478 kts 164°
2026-04-26 14:36 49.02701 8.71023 33214 ft 477 kts 164°
2026-04-26 14:37 48.96394 8.74108 33214 ft 476 kts 164°
2026-04-26 14:37 48.90068 8.76667 33217 ft 472 kts 175°
2026-04-26 14:38 48.83645 8.76461 33214 ft 467 kts 191°
2026-04-26 14:38 48.77224 8.74816 33209 ft 466 kts 192°
2026-04-26 14:39 48.70853 8.73136 33205 ft 465 kts 193°
2026-04-26 14:39 48.64481 8.71448 33204 ft 466 kts 193°
2026-04-26 14:40 48.58125 8.69763 33205 ft 465 kts 193°
2026-04-26 14:40 48.51764 8.68078 33199 ft 465 kts 193°
2026-04-26 14:41 48.45438 8.66404 33196 ft 465 kts 193°
2026-04-26 14:41 48.39041 8.64715 32600 ft 471 kts 193°
2026-04-26 14:41 48.35797 8.63819 31953 ft 470 kts 194°
2026-04-26 14:42 48.32628 8.62857 31286 ft 468 kts 194°
2026-04-26 14:42 48.29440 8.61884 30611 ft 465 kts 194°
2026-04-26 14:42 48.26265 8.60919 29935 ft 465 kts 194°
2026-04-26 14:42 48.23126 8.59966 29266 ft 468 kts 194°
2026-04-26 14:43 48.19904 8.58993 28581 ft 468 kts 194°
2026-04-26 14:43 48.16738 8.58039 27911 ft 465 kts 194°
2026-04-26 14:43 48.13592 8.57097 27240 ft 461 kts 194°
2026-04-26 14:43 48.10484 8.56170 26578 ft 458 kts 194°
2026-04-26 14:44 48.07352 8.55237 25908 ft 455 kts 194°
2026-04-26 14:44 48.04283 8.54324 25249 ft 451 kts 194°
2026-04-26 14:44 48.01177 8.53667 24564 ft 450 kts 186°
2026-04-26 14:44 47.98034 8.53715 23871 ft 450 kts 178°
2026-04-26 14:45 47.94957 8.54471 23190 ft 449 kts 169°
2026-04-26 14:45 47.92992 8.55343 22741 ft 449 kts 163°
2026-04-26 14:45 47.89246 8.57975 21847 ft 448 kts 151°
2026-04-26 14:45 47.86705 8.60631 21077 ft 448 kts 143°
2026-04-26 14:46 47.84275 8.63552 20287 ft 448 kts 142°
2026-04-26 14:46 47.81854 8.66483 19493 ft 447 kts 143°
2026-04-26 14:46 47.79444 8.69306 18820 ft 443 kts 142°
2026-04-26 14:46 47.77097 8.72213 18279 ft 434 kts 141°
2026-04-26 14:47 47.74811 8.75097 17379 ft 424 kts 141°
2026-04-26 14:47 47.72605 8.77894 16580 ft 412 kts 141°
2026-04-26 14:47 47.70472 8.80591 15839 ft 399 kts 141°
2026-04-26 14:47 47.68382 8.83226 15106 ft 388 kts 141°
2026-04-26 14:48 47.66368 8.85761 14374 ft 379 kts 141°
2026-04-26 14:48 47.64366 8.88270 13625 ft 369 kts 141°
2026-04-26 14:48 47.62453 8.90661 12904 ft 361 kts 141°
2026-04-26 14:48 47.60524 8.92993 12172 ft 354 kts 146°
2026-04-26 14:49 47.58351 8.94618 11406 ft 346 kts 164°
2026-04-26 14:49 47.56021 8.95144 10660 ft 339 kts 183°
2026-04-26 14:49 47.53749 8.94467 9915 ft 332 kts 203°
2026-04-26 14:49 47.51845 8.92623 9167 ft 326 kts 226°
2026-04-26 14:50 47.50604 8.89915 8442 ft 322 kts 249°
2026-04-26 14:50 47.50191 8.86745 7714 ft 318 kts 273°
2026-04-26 14:50 47.50649 8.83607 7206 ft 306 kts 291°
2026-04-26 14:50 47.51467 8.80767 7017 ft 286 kts 296°
2026-04-26 14:51 47.52305 8.78116 7166 ft 283 kts 296°
2026-04-26 14:51 47.53130 8.75511 7174 ft 279 kts 296°
2026-04-26 14:51 47.53953 8.72910 7175 ft 279 kts 296°
2026-04-26 14:51 47.54771 8.70321 7174 ft 278 kts 296°
2026-04-26 14:52 47.55589 8.67732 7170 ft 279 kts 296°
2026-04-26 14:52 47.56404 8.65150 7016 ft 277 kts 296°
2026-04-26 14:52 47.57220 8.62564 7003 ft 277 kts 296°
2026-04-26 14:52 47.58218 8.60184 6991 ft 268 kts 313°
2026-04-26 14:53 47.59510 8.58289 6996 ft 253 kts 318°
2026-04-26 14:53 47.60766 8.56557 6995 ft 239 kts 319°
2026-04-26 14:53 47.61957 8.54927 6997 ft 225 kts 319°
2026-04-26 14:53 47.63080 8.53392 7002 ft 221 kts 319°
2026-04-26 14:54 47.64226 8.51824 7005 ft 221 kts 319°
2026-04-26 14:54 47.65363 8.50266 6752 ft 228 kts 319°
2026-04-26 14:54 47.66529 8.48667 6481 ft 227 kts 319°
2026-04-26 14:54 47.67689 8.47075 6235 ft 225 kts 319°
2026-04-26 14:55 47.68835 8.45502 6039 ft 221 kts 319°
2026-04-26 14:55 47.69944 8.43979 6012 ft 216 kts 319°
2026-04-26 14:55 47.71058 8.42448 6011 ft 217 kts 319°
2026-04-26 14:55 47.72161 8.40931 6013 ft 217 kts 319°
2026-04-26 14:56 47.73225 8.39323 6009 ft 218 kts 307°
2026-04-26 14:56 47.73853 8.37339 6005 ft 214 kts 285°
2026-04-26 14:56 47.73927 8.35157 6009 ft 213 kts 262°
2026-04-26 14:56 47.73437 8.33078 6011 ft 214 kts 239°
2026-04-26 14:57 47.72513 8.31358 6016 ft 214 kts 228°
2026-04-26 14:57 47.71503 8.29723 6018 ft 214 kts 227°
2026-04-26 14:57 47.70361 8.28341 6011 ft 214 kts 206°
2026-04-26 14:57 47.68946 8.27703 6009 ft 212 kts 183°
2026-04-26 14:58 47.67497 8.27917 6007 ft 209 kts 160°
2026-04-26 14:58 47.66254 8.28888 6000 ft 196 kts 139°
2026-04-26 14:58 47.65253 8.30198 5864 ft 191 kts 133°
2026-04-26 14:58 47.64298 8.31592 5621 ft 192 kts 134°
2026-04-26 14:59 47.63319 8.32970 5367 ft 196 kts 135°
2026-04-26 14:59 47.62326 8.34333 5110 ft 193 kts 135°
2026-04-26 14:59 47.61351 8.35666 4862 ft 194 kts 135°
2026-04-26 14:59 47.60675 8.36589 4687 ft 194 kts 135°
2026-04-26 15:00 47.59367 8.38377 4344 ft 193 kts 134°
2026-04-26 15:00 47.58369 8.39743 4079 ft 193 kts 134°
2026-04-26 15:00 47.57392 8.41081 3823 ft 192 kts 134°
2026-04-26 15:00 47.56411 8.42422 3570 ft 189 kts 134°
2026-04-26 15:01 47.55459 8.43725 3326 ft 186 kts 134°
2026-04-26 15:01 47.54520 8.45009 3094 ft 183 kts 134°
2026-04-26 15:01 47.53613 8.46246 2880 ft 171 kts 134°
2026-04-26 15:01 47.52753 8.47422 2650 ft 162 kts 134°
2026-04-26 15:02 47.51960 8.48504 2436 ft 148 kts 134°
2026-04-26 15:02 47.51199 8.49542 2189 ft 151 kts 135°
2026-04-26 15:02 47.50415 8.50571 2078 ft 152 kts 135°
2026-04-26 15:02 47.49633 8.51650 1830 ft 152 kts 134°
2026-04-26 15:03 47.48879 8.52695 1639 ft 146 kts 136°
2026-04-26 15:03 47.48137 8.53704 1441 ft 142 kts 135°
2026-04-26 15:03 47.47469 8.54617 1390 ft 113 kts 137°
2026-04-26 15:03 47.47007 8.55244 1391 ft 69 kts 137°
2026-04-26 15:04 47.46757 8.55569 1391 ft 32 kts 146°
2026-04-26 15:04 47.46559 8.55688 1391 ft 24 kts 168°
2026-04-26 15:04 47.46482 8.55712 1391 ft 10 kts 167°
2026-04-26 15:04 47.46433 8.55729 1392 ft 4 kts 165°
2026-04-26 15:05 47.46396 8.55751 1392 ft 7 kts 152°
2026-04-26 15:05 47.46362 8.55783 1392 ft 9 kts 143°
2026-04-26 15:05 47.46300 8.55863 1392 ft 9 kts 137°
2026-04-26 15:05 47.46249 8.55932 1392 ft 10 kts 136°
2026-04-26 15:06 47.46192 8.55995 1392 ft 10 kts 163°
2026-04-26 15:06 47.46111 8.55992 1392 ft 12 kts 184°
2026-04-26 15:06 47.46022 8.55980 1392 ft 12 kts 186°
2026-04-26 15:06 47.45946 8.55943 1392 ft 10 kts 231°
2026-04-26 15:07 47.45950 8.55812 1392 ft 3 kts 334°
2026-04-26 15:07 47.45968 8.55813 1392 ft 3 kts 11°
2026-04-26 15:07 47.45995 8.55821 1392 ft 4 kts
2026-04-26 15:08 47.46018 8.55825 1392 ft 1 kts
2026-04-26 15:08 47.46026 8.55827 1392 ft 0 kts